Wetterdaten: Montag, 30.04.2018
Datum Zeit Temp. Aussen Temp. o. S. +5cm Feuchte Auss BlattFeu 1 Luftdruck Regen Sonnenschein Regendauer Solar Windben Empfang
30.04.2018 00:00 14,2 C 13,3 C 12,2 C 89 % 11 lf 996,5 hPa 0,0 l/m 0 min 0 min 0 W/m 27,0 km/h (4 Bft) 95,65 %
30.04.2018 00:02 14,1 C 13,3 C 12,8 C 90 % 4 lf 998,9 hPa 0,0 l/m 0 min 0 min 0 W/m 49,6 km/h (6 Bft) 94,74 %
30.04.2018 00:04 14,1 C 13,3 C 12,8 C 90 % 2 lf 999,0 hPa 0,0 l/m 0 min 0 min 0 W/m 40,6 km/h (6 Bft) 97,87 %
30.04.2018 00:08 14,2 C 14,4 C 12,8 C 90 % 14 lf 998,5 hPa 0,0 l/m 0 min 4 min 0 W/m 58,6 km/h (7 Bft) 96,77 %
30.04.2018 00:10 14,2 C 14,4 C 12,8 C 90 % 15 lf 997,9 hPa 0,0 l/m 0 min 2 min 0 W/m 54,1 km/h (7 Bft) 97,87 %
30.04.2018 00:12 14,2 C 14,4 C 12,2 C 90 % 15 lf 997,9 hPa 0,0 l/m 0 min 2 min 0 W/m 45,1 km/h (6 Bft) 97,87 %
30.04.2018 00:14 14,3 C 14,4 C 12,2 C 90 % 15 lf 996,1 hPa 0,0 l/m 0 min 2 min 0 W/m 49,6 km/h (6 Bft) 100,00 %
30.04.2018 00:16 14,4 C 13,9 C 12,2 C 90 % 15 lf 996,4 hPa 0,0 l/m 0 min 2 min 0 W/m 29,3 km/h (5 Bft) 97,87 %
30.04.2018 00:18 14,5 C 13,9 C 12,2 C 90 % 15 lf 996,5 hPa 0,0 l/m 0 min 2 min 0 W/m 31,5 km/h (5 Bft) 97,87 %
30.04.2018 00:20 14,6 C 13,9 C 12,8 C 90 % 15 lf 996,6 hPa 0,0 l/m 0 min 2 min 0 W/m 29,3 km/h (5 Bft) 100,00 %
30.04.2018 00:22 14,7 C 13,9 C 12,8 C 90 % 15 lf 996,7 hPa 0,0 l/m 0 min 2 min 0 W/m 24,8 km/h (4 Bft) 100,00 %
30.04.2018 00:24 14,7 C 13,3 C 12,8 C 89 % 15 lf 996,7 hPa 0,0 l/m 0 min 2 min 0 W/m 24,8 km/h (4 Bft) 95,74 %
30.04.2018 00:26 14,7 C 13,3 C 12,8 C 89 % 15 lf 996,6 hPa 0,0 l/m 0 min 2 min 0 W/m 22,5 km/h (4 Bft) 100,00 %
30.04.2018 00:28 14,8 C 13,3 C 12,8 C 89 % 15 lf 996,6 hPa 0,0 l/m 0 min 2 min 0 W/m 13,5 km/h (3 Bft) 97,87 %
30.04.2018 00:30 14,8 C 13,9 C 12,8 C 89 % 15 lf 996,7 hPa 0,0 l/m 0 min 2 min 0 W/m 15,8 km/h (3 Bft) 97,87 %
30.04.2018 00:32 14,8 C 13,9 C 12,8 C 89 % 15 lf 997,0 hPa 0,0 l/m 0 min 2 min 0 W/m 18,0 km/h (3 Bft) 97,83 %
30.04.2018 00:34 14,8 C 13,9 C 12,2 C 89 % 15 lf 997,2 hPa 0,0 l/m 0 min 2 min 0 W/m 15,8 km/h (3 Bft) 97,87 %
30.04.2018 00:36 14,8 C 13,9 C 12,2 C 89 % 15 lf 997,5 hPa 0,0 l/m 0 min 2 min 0 W/m 13,5 km/h (3 Bft) 95,74 %
30.04.2018 00:38 14,9 C 13,9 C 12,2 C 89 % 15 lf 997,5 hPa 0,2 l/m 0 min 2 min 0 W/m 9,0 km/h (2 Bft) 97,87 %
30.04.2018 00:40 14,9 C 13,3 C 12,2 C 88 % 15 lf 997,8 hPa 0,0 l/m 0 min 2 min 0 W/m 11,3 km/h (2 Bft) 93,62 %
30.04.2018 00:42 14,9 C 13,3 C 12,2 C 88 % 15 lf 997,8 hPa 0,4 l/m 0 min 2 min 0 W/m 11,3 km/h (2 Bft) 95,65 %
30.04.2018 00:44 14,9 C 12,8 C 12,2 C 88 % 15 lf 997,9 hPa 0,2 l/m 0 min 2 min 0 W/m 6,8 km/h (2 Bft) 95,74 %
30.04.2018 00:46 14,9 C 12,8 C 12,2 C 88 % 15 lf 998,0 hPa 0,2 l/m 0 min 2 min 0 W/m 6,8 km/h (2 Bft) 95,74 %
30.04.2018 00:48 14,9 C 13,3 C 12,2 C 89 % 15 lf 998,0 hPa 0,4 l/m 0 min 2 min 0 W/m 6,8 km/h (2 Bft) 93,62 %
30.04.2018 00:50 14,9 C 12,8 C 12,2 C 89 % 15 lf 998,0 hPa 0,6 l/m 0 min 2 min 0 W/m 6,8 km/h (2 Bft) 95,74 %
30.04.2018 00:52 14,9 C 12,8 C 12,2 C 89 % 15 lf 998,0 hPa 0,2 l/m 0 min 2 min 0 W/m 13,5 km/h (3 Bft) 93,62 %
30.04.2018 00:54 14,9 C 12,8 C 12,2 C 89 % 15 lf 998,1 hPa 0,2 l/m 0 min 2 min 0 W/m 11,3 km/h (2 Bft) 93,48 %
30.04.2018 00:56 14,8 C 12,8 C 12,2 C 89 % 15 lf 998,2 hPa 0,0 l/m 0 min 2 min 0 W/m 13,5 km/h (3 Bft) 93,62 %
30.04.2018 00:58 14,8 C 12,8 C 12,2 C 89 % 15 lf 998,5 hPa 0,2 l/m 0 min 2 min 0 W/m 13,5 km/h (3 Bft) 91,49 %
30.04.2018 01:00 14,7 C 12,8 C 12,2 C 89 % 15 lf 998,5 hPa 0,2 l/m 0 min 2 min 0 W/m 20,3 km/h (4 Bft) 95,74 %
30.04.2018 01:02 14,7 C 12,8 C 12,2 C 90 % 15 lf 998,3 hPa 0,2 l/m 0 min 2 min 0 W/m 11,3 km/h (2 Bft) 95,74 %
30.04.2018 01:04 14,6 C 12,8 C 12,2 C 90 % 15 lf 998,2 hPa 0,4 l/m 0 min 2 min 0 W/m 15,8 km/h (3 Bft) 95,74 %
30.04.2018 01:06 14,6 C 12,8 C 11,7 C 90 % 15 lf 998,0 hPa 0,4 l/m 0 min 2 min 0 W/m 15,8 km/h (3 Bft) 95,65 %
30.04.2018 01:08 14,5 C 12,2 C 11,7 C 90 % 15 lf 997,6 hPa 0,2 l/m 0 min 2 min 0 W/m 24,8 km/h (4 Bft) 93,62 %
30.04.2018 01:10 14,3 C 12,2 C 11,7 C 90 % 15 lf 997,3 hPa 0,2 l/m 0 min 2 min 0 W/m 27,0 km/h (4 Bft) 95,74 %
30.04.2018 01:12 14,2 C 12,2 C 11,7 C 90 % 15 lf 997,2 hPa 0,2 l/m 0 min 2 min 0 W/m 29,3 km/h (5 Bft) 93,62 %
30.04.2018 01:14 14,2 C 12,2 C 11,7 C 90 % 15 lf 997,2 hPa 0,2 l/m 0 min 2 min 0 W/m 27,0 km/h (4 Bft) 93,62 %
30.04.2018 01:16 14,2 C 12,2 C 11,7 C 91 % 15 lf 997,2 hPa 0,0 l/m 0 min 2 min 0 W/m 20,3 km/h (4 Bft) 97,87 %
30.04.2018 01:18 14,1 C 12,2 C 11,7 C 91 % 15 lf 997,3 hPa 0,2 l/m 0 min 2 min 0 W/m 13,5 km/h (3 Bft) 97,83 %
30.04.2018 01:20 14,0 C 12,2 C 11,7 C 91 % 15 lf 997,4 hPa 0,2 l/m 0 min 2 min 0 W/m 13,5 km/h (3 Bft) 95,74 %
30.04.2018 01:22 13,9 C 12,2 C 11,7 C 91 % 15 lf 997,4 hPa 0,2 l/m 0 min 2 min 0 W/m 13,5 km/h (3 Bft) 97,87 %
30.04.2018 01:24 13,9 C 12,2 C 11,7 C 92 % 15 lf 997,4 hPa 0,0 l/m 0 min 2 min 0 W/m 11,3 km/h (2 Bft) 95,74 %
30.04.2018 01:26 13,8 C 12,2 C 11,7 C 92 % 15 lf 997,4 hPa 0,2 l/m 0 min 2 min 0 W/m 9,0 km/h (2 Bft) 97,87 %
30.04.2018 01:28 13,8 C 12,2 C 11,7 C 92 % 15 lf 997,3 hPa 0,2 l/m 0 min 2 min 0 W/m 15,8 km/h (3 Bft) 97,87 %
30.04.2018 01:30 13,7 C 12,2 C 11,7 C 92 % 15 lf 997,3 hPa 0,2 l/m 0 min 2 min 0 W/m 9,0 km/h (2 Bft) 97,83 %
30.04.2018 01:32 13,7 C 12,2 C 11,7 C 92 % 15 lf 997,8 hPa 0,0 l/m 0 min 2 min 0 W/m 18,0 km/h (3 Bft) 97,87 %
30.04.2018 01:34 13,7 C 12,2 C 11,7 C 92 % 15 lf 998,3 hPa 0,2 l/m 0 min 2 min 0 W/m 29,3 km/h (5 Bft) 95,74 %
30.04.2018 01:36 13,6 C 12,2 C 11,7 C 92 % 15 lf 998,5 hPa 0,2 l/m 0 min 2 min 0 W/m 31,5 km/h (5 Bft) 93,62 %
30.04.2018 01:38 13,5 C 11,7 C 11,1 C 93 % 15 lf 998,7 hPa 0,8 l/m 0 min 2 min 0 W/m 38,3 km/h (5 Bft) 97,87 %
30.04.2018 01:40 13,4 C 12,2 C 11,1 C 93 % 15 lf 998,5 hPa 1,2 l/m 0 min 2 min 0 W/m 38,3 km/h (5 Bft) 97,87 %
30.04.2018 01:42 13,3 C 12,2 C 11,1 C 93 % 15 lf 997,8 hPa 0,8 l/m 0 min 2 min 0 W/m 24,8 km/h (4 Bft) 97,83 %
30.04.2018 01:44 13,2 C 12,2 C 11,1 C 93 % 15 lf 997,1 hPa 0,4 l/m 0 min 2 min 0 W/m 29,3 km/h (5 Bft) 95,74 %
30.04.2018 01:46 13,1 C 12,2 C 11,1 C 93 % 15 lf 996,8 hPa 0,4 l/m 0 min 2 min 0 W/m 29,3 km/h (5 Bft) 97,87 %
30.04.2018 01:48 13,1 C 11,7 C 11,1 C 93 % 15 lf 996,7 hPa 0,2 l/m 0 min 2 min 0 W/m 24,8 km/h (4 Bft) 97,87 %
30.04.2018 01:50 13,0 C 12,2 C 11,1 C 94 % 15 lf 996,6 hPa 0,2 l/m 0 min 2 min 0 W/m 22,5 km/h (4 Bft) 97,87 %
30.04.2018 01:52 12,9 C 11,7 C 11,1 C 94 % 15 lf 996,5 hPa 0,2 l/m 0 min 2 min 0 W/m 20,3 km/h (4 Bft) 97,87 %
30.04.2018 01:54 12,9 C 11,7 C 11,1 C 94 % 15 lf 996,2 hPa 0,0 l/m 0 min 2 min 0 W/m 24,8 km/h (4 Bft) 97,83 %
30.04.2018 01:56 12,9 C 12,2 C 11,1 C 94 % 15 lf 996,0 hPa 0,2 l/m 0 min 2 min 0 W/m 29,3 km/h (5 Bft) 100,00 %
30.04.2018 01:58 12,9 C 11,7 C 11,1 C 94 % 15 lf 996,1 hPa 0,0 l/m 0 min 2 min 0 W/m 22,5 km/h (4 Bft) 97,87 %
30.04.2018 02:00 12,8 C 11,7 C 11,1 C 94 % 15 lf 996,2 hPa 0,0 l/m 0 min 2 min 0 W/m 13,5 km/h (3 Bft) 97,87 %
30.04.2018 02:02 12,8 C 11,7 C 11,1 C 94 % 15 lf 996,0 hPa 0,0 l/m 0 min 2 min 0 W/m 18,0 km/h (3 Bft) 100,00 %
30.04.2018 02:04 12,8 C 11,7 C 11,1 C 94 % 15 lf 995,8 hPa 0,0 l/m 0 min 2 min 0 W/m 31,5 km/h (5 Bft) 100,00 %
30.04.2018 02:08 12,7 C 11,7 C 11,1 C 95 % 15 lf 995,3 hPa 0,0 l/m 0 min 4 min 0 W/m 36,0 km/h (5 Bft) 98,94 %
30.04.2018 02:10 12,7 C 11,7 C 11,1 C 95 % 15 lf 995,3 hPa 0,0 l/m 0 min 2 min 0 W/m 36,0 km/h (5 Bft) 100,00 %
30.04.2018 02:12 12,7 C 11,7 C 11,1 C 95 % 15 lf 995,2 hPa 0,0 l/m 0 min 2 min 0 W/m 29,3 km/h (5 Bft) 100,00 %
30.04.2018 02:14 12,7 C 11,7 C 11,1 C 95 % 15 lf 995,5 hPa 0,0 l/m 0 min 2 min 0 W/m 24,8 km/h (4 Bft) 97,87 %
30.04.2018 02:16 12,7 C 11,7 C 11,1 C 95 % 15 lf 995,7 hPa 0,0 l/m 0 min 2 min 0 W/m 22,5 km/h (4 Bft) 97,83 %
30.04.2018 02:18 12,7 C 11,7 C 11,1 C 95 % 15 lf 995,8 hPa 0,0 l/m 0 min 2 min 0 W/m 24,8 km/h (4 Bft) 97,87 %
30.04.2018 02:20 12,7 C 11,7 C 11,1 C 95 % 15 lf 995,7 hPa 0,0 l/m 0 min 2 min 0 W/m 22,5 km/h (4 Bft) 100,00 %
30.04.2018 02:22 12,7 C 11,7 C 11,1 C 95 % 15 lf 995,7 hPa 0,0 l/m 0 min 2 min 0 W/m 24,8 km/h (4 Bft) 95,74 %
30.04.2018 02:24 12,7 C 11,7 C 11,1 C 95 % 15 lf 995,7 hPa 0,0 l/m 0 min 2 min 0 W/m 18,0 km/h (3 Bft) 100,00 %
30.04.2018 02:26 12,7 C 11,7 C 11,1 C 95 % 15 lf 995,7 hPa 0,0 l/m 0 min 2 min 0 W/m 27,0 km/h (4 Bft) 95,74 %
30.04.2018 02:28 12,7 C 11,7 C 11,1 C 95 % 15 lf 995,7 hPa 0,0 l/m 0 min 0 min 0 W/m 20,3 km/h (4 Bft) 100,00 %
30.04.2018 02:30 12,7 C 11,7 C 11,1 C 95 % 15 lf 995,6 hPa 0,0 l/m 0 min 0 min 0 W/m 22,5 km/h (4 Bft) 100,00 %
30.04.2018 02:32 12,7 C 11,7 C 11,1 C 96 % 15 lf 995,6 hPa 0,0 l/m 0 min 0 min 0 W/m 18,0 km/h (3 Bft) 97,92 %
30.04.2018 02:34 12,7 C 11,7 C 11,1 C 95 % 15 lf 995,7 hPa 0,0 l/m 0 min 0 min 0 W/m 15,8 km/h (3 Bft) 100,00 %
30.04.2018 02:36 12,7 C 11,7 C 11,1 C 95 % 15 lf 995,7 hPa 0,0 l/m 0 min 0 min 0 W/m 20,3 km/h (4 Bft) 100,00 %
30.04.2018 02:38 12,7 C 11,7 C 11,1 C 95 % 15 lf 995,8 hPa 0,0 l/m 0 min 0 min 0 W/m 13,5 km/h (3 Bft) 100,00 %
30.04.2018 02:40 12,7 C 11,7 C 11,1 C 95 % 15 lf 995,8 hPa 0,0 l/m 0 min 0 min 0 W/m 9,0 km/h (2 Bft) 97,83 %
30.04.2018 02:42 12,7 C 11,7 C 11,1 C 96 % 15 lf 995,8 hPa 0,0 l/m 0 min 0 min 0 W/m 9,0 km/h (2 Bft) 95,74 %
30.04.2018 02:44 12,6 C 11,7 C 11,1 C 96 % 15 lf 995,9 hPa 0,0 l/m 0 min 0 min 0 W/m 9,0 km/h (2 Bft) 97,87 %
30.04.2018 02:46 12,6 C 11,7 C 11,1 C 96 % 15 lf 996,4 hPa 0,0 l/m 0 min 0 min 0 W/m 15,8 km/h (3 Bft) 97,87 %
30.04.2018 02:48 12,7 C 11,7 C 11,1 C 96 % 15 lf 996,9 hPa 0,0 l/m 0 min 2 min 0 W/m 18,0 km/h (3 Bft) 97,87 %
30.04.2018 02:50 12,7 C 11,7 C 11,1 C 96 % 15 lf 996,9 hPa 0,0 l/m 0 min 2 min 0 W/m 13,5 km/h (3 Bft) 97,83 %
30.04.2018 02:52 12,7 C 11,7 C 11,1 C 96 % 15 lf 996,6 hPa 0,2 l/m 0 min 2 min 0 W/m 11,3 km/h (2 Bft) 97,87 %
30.04.2018 02:54 12,7 C 11,7 C 11,1 C 96 % 15 lf 996,5 hPa 0,0 l/m 0 min 2 min 0 W/m 9,0 km/h (2 Bft) 97,87 %
30.04.2018 02:56 12,7 C 11,7 C 11,1 C 96 % 15 lf 996,4 hPa 0,2 l/m 0 min 2 min 0 W/m 9,0 km/h (2 Bft) 97,87 %
30.04.2018 02:58 12,7 C 11,7 C 11,1 C 96 % 15 lf 996,3 hPa 0,0 l/m 0 min 2 min 0 W/m 9,0 km/h (2 Bft) 93,62 %
30.04.2018 03:00 12,6 C 11,7 C 11,1 C 96 % 15 lf 996,2 hPa 0,2 l/m 0 min 2 min 0 W/m 6,8 km/h (2 Bft) 97,87 %
30.04.2018 03:02 12,6 C 11,7 C 11,1 C 96 % 15 lf 996,2 hPa 0,0 l/m 0 min 2 min 0 W/m 9,0 km/h (2 Bft) 97,87 %
30.04.2018 03:04 12,6 C 11,7 C 11,1 C 96 % 15 lf 996,1 hPa 0,0 l/m 0 min 2 min 0 W/m 9,0 km/h (2 Bft) 97,87 %
30.04.2018 03:06 12,6 C 12,2 C 11,1 C 96 % 15 lf 996,1 hPa 0,2 l/m 0 min 2 min 0 W/m 11,3 km/h (2 Bft) 93,48 %
30.04.2018 03:08 12,6 C 11,7 C 11,1 C 96 % 15 lf 996,1 hPa 0,0 l/m 0 min 2 min 0 W/m 9,0 km/h (2 Bft) 97,87 %
30.04.2018 03:10 12,6 C 11,7 C 11,1 C 96 % 15 lf 996,1 hPa 0,0 l/m 0 min 2 min 0 W/m 9,0 km/h (2 Bft) 95,74 %
30.04.2018 03:12 12,6 C 11,7 C 11,1 C 96 % 15 lf 995,9 hPa 0,0 l/m 0 min 2 min 0 W/m 15,8 km/h (3 Bft) 93,62 %
30.04.2018 03:14 12,6 C 11,7 C 11,1 C 96 % 15 lf 995,5 hPa 0,2 l/m 0 min 2 min 0 W/m 15,8 km/h (3 Bft) 93,62 %
30.04.2018 03:16 12,6 C 11,7 C 11,1 C 96 % 15 lf 995,2 hPa 0,2 l/m 0 min 2 min 0 W/m 20,3 km/h (4 Bft) 93,62 %
30.04.2018 03:18 12,5 C 11,7 C 11,1 C 96 % 15 lf 994,8 hPa 0,0 l/m 0 min 2 min 0 W/m 20,3 km/h (4 Bft) 95,65 %
30.04.2018 03:20 12,5 C 11,7 C 11,1 C 96 % 15 lf 994,6 hPa 0,2 l/m 0 min 2 min 0 W/m 22,5 km/h (4 Bft) 95,74 %
30.04.2018 03:22 12,4 C 11,7 C 11,1 C 96 % 15 lf 994,8 hPa 0,0 l/m 0 min 2 min 0 W/m 22,5 km/h (4 Bft) 91,49 %
30.04.2018 03:24 12,4 C 11,7 C 11,1 C 96 % 15 lf 995,2 hPa 0,0 l/m 0 min 2 min 0 W/m 15,8 km/h (3 Bft) 97,87 %
30.04.2018 03:26 12,4 C 11,7 C 11,1 C 96 % 15 lf 995,5 hPa 0,0 l/m 0 min 2 min 0 W/m 6,8 km/h (2 Bft) 95,74 %
30.04.2018 03:28 12,4 C 11,7 C 11,1 C 96 % 15 lf 995,5 hPa 0,0 l/m 0 min 0 min 0 W/m 4,5 km/h (1 Bft) 93,62 %
30.04.2018 03:30 12,4 C 11,7 C 11,1 C 96 % 15 lf 995,5 hPa 0,0 l/m 0 min 2 min 0 W/m 9,0 km/h (2 Bft) 93,48 %
30.04.2018 03:32 12,4 C 11,7 C 11,1 C 96 % 15 lf 995,5 hPa 0,0 l/m 0 min 0 min 0 W/m 11,3 km/h (2 Bft) 89,36 %
30.04.2018 03:34 12,3 C 11,7 C 11,1 C 96 % 15 lf 995,4 hPa 0,0 l/m 0 min 0 min 0 W/m 11,3 km/h (2 Bft) 93,62 %
30.04.2018 03:36 12,3 C 11,7 C 11,1 C 96 % 15 lf 995,5 hPa 0,0 l/m 0 min 0 min 0 W/m 15,8 km/h (3 Bft) 93,62 %
30.04.2018 03:38 12,3 C 11,7 C 11,1 C 96 % 15 lf 995,5 hPa 0,0 l/m 0 min 0 min 0 W/m 13,5 km/h (3 Bft) 91,49 %
30.04.2018 03:40 12,3 C 11,7 C 11,1 C 96 % 15 lf 995,6 hPa 0,0 l/m 0 min 0 min 0 W/m 13,5 km/h (3 Bft) 91,49 %
30.04.2018 03:42 12,3 C 11,7 C 11,1 C 96 % 15 lf 995,6 hPa 0,0 l/m 0 min 0 min 0 W/m 6,8 km/h (2 Bft) 93,48 %
30.04.2018 03:44 12,3 C 11,7 C 11,1 C 96 % 15 lf 995,6 hPa 0,0 l/m 0 min 0 min 0 W/m 9,0 km/h (2 Bft) 91,49 %
30.04.2018 03:46 12,3 C 11,7 C 11,1 C 96 % 15 lf 995,6 hPa 0,0 l/m 0 min 0 min 0 W/m 6,8 km/h (2 Bft) 95,74 %
30.04.2018 03:48 12,3 C 11,7 C 11,1 C 96 % 15 lf 995,6 hPa 0,0 l/m 0 min 0 min 0 W/m 2,3 km/h (1 Bft) 91,49 %
30.04.2018 03:50 12,2 C 11,7 C 11,1 C 96 % 15 lf 995,6 hPa 0,0 l/m 0 min 0 min 0 W/m 4,5 km/h (1 Bft) 91,49 %
30.04.2018 03:52 12,2 C 11,7 C 11,1 C 96 % 15 lf 995,6 hPa 0,0 l/m 0 min 0 min 0 W/m 4,5 km/h (1 Bft) 91,30 %
30.04.2018 03:54 12,2 C 11,7 C 11,1 C 96 % 15 lf 995,7 hPa 0,0 l/m 0 min 0 min 0 W/m 2,3 km/h (1 Bft) 91,49 %
30.04.2018 03:56 12,2 C 11,7 C 11,1 C 96 % 15 lf 995,8 hPa 0,0 l/m 0 min 0 min 0 W/m 4,5 km/h (1 Bft) 93,62 %
30.04.2018 03:58 12,2 C 11,7 C 11,1 C 96 % 15 lf 995,7 hPa 0,0 l/m 0 min 0 min 0 W/m 4,5 km/h (1 Bft) 89,36 %
30.04.2018 04:00 12,2 C 11,7 C 11,1 C 96 % 15 lf 995,7 hPa 0,0 l/m 0 min 0 min 0 W/m 6,8 km/h (2 Bft) 91,49 %
30.04.2018 04:02 12,2 C 11,7 C 11,1 C 96 % 15 lf 995,8 hPa 0,0 l/m 0 min 0 min 0 W/m 4,5 km/h (1 Bft) 100,00 %
30.04.2018 04:04 12,2 C 11,7 C 11,1 C 96 % 15 lf 995,8 hPa 0,0 l/m 0 min 0 min 0 W/m 4,5 km/h (1 Bft) 95,65 %
30.04.2018 04:06 12,2 C 11,7 C 11,1 C 96 % 15 lf 995,8 hPa 0,0 l/m 0 min 0 min 0 W/m 6,8 km/h (2 Bft) 97,87 %
30.04.2018 04:08 12,2 C 11,7 C 11,1 C 96 % 15 lf 995,8 hPa 0,0 l/m 0 min 0 min 0 W/m 6,8 km/h (2 Bft) 95,74 %
30.04.2018 04:10 12,2 C 11,7 C 11,1 C 97 % 15 lf 995,9 hPa 0,0 l/m 0 min 0 min 0 W/m 6,8 km/h (2 Bft) 97,87 %
30.04.2018 04:12 12,2 C 11,7 C 11,1 C 97 % 15 lf 995,9 hPa 0,0 l/m 0 min 0 min 0 W/m 9,0 km/h (2 Bft) 97,87 %
30.04.2018 04:14 12,2 C 11,7 C 11,1 C 97 % 15 lf 995,9 hPa 0,0 l/m 0 min 0 min 0 W/m 9,0 km/h (2 Bft) 97,87 %
30.04.2018 04:16 12,2 C 11,7 C 11,1 C 97 % 15 lf 996,0 hPa 0,0 l/m 0 min 0 min 0 W/m 9,0 km/h (2 Bft) 97,83 %
30.04.2018 04:18 12,2 C 11,7 C 11,1 C 97 % 15 lf 996,0 hPa 0,0 l/m 0 min 0 min 0 W/m 11,3 km/h (2 Bft) 97,87 %
30.04.2018 04:20 12,2 C 11,7 C 11,1 C 97 % 15 lf 996,0 hPa 0,0 l/m 0 min 0 min 0 W/m 6,8 km/h (2 Bft) 97,87 %
30.04.2018 04:22 12,2 C 11,7 C 11,1 C 97 % 15 lf 996,1 hPa 0,0 l/m 0 min 0 min 0 W/m 6,8 km/h (2 Bft) 97,87 %
30.04.2018 04:24 12,2 C 11,7 C 11,1 C 97 % 15 lf 996,1 hPa 0,0 l/m 0 min 0 min 0 W/m 11,3 km/h (2 Bft) 95,74 %
30.04.2018 04:26 12,2 C 11,7 C 11,1 C 97 % 15 lf 996,2 hPa 0,0 l/m 0 min 0 min 0 W/m 11,3 km/h (2 Bft) 95,74 %
30.04.2018 04:28 12,2 C 11,7 C 11,1 C 97 % 15 lf 996,1 hPa 0,0 l/m 0 min 0 min 0 W/m 9,0 km/h (2 Bft) 97,83 %
30.04.2018 04:30 12,2 C 11,7 C 11,1 C 97 % 15 lf 996,0 hPa 0,0 l/m 0 min 0 min 0 W/m 4,5 km/h (1 Bft) 100,00 %
30.04.2018 04:32 12,2 C 11,7 C 11,1 C 97 % 15 lf 996,0 hPa 0,0 l/m 0 min 0 min 0 W/m 9,0 km/h (2 Bft) 97,87 %
30.04.2018 04:34 12,2 C 11,7 C 11,1 C 97 % 15 lf 996,0 hPa 0,0 l/m 0 min 0 min 0 W/m 6,8 km/h (2 Bft) 97,87 %
30.04.2018 04:36 12,2 C 11,7 C 11,1 C 97 % 15 lf 995,9 hPa 0,0 l/m 0 min 0 min 0 W/m 2,3 km/h (1 Bft) 100,00 %
30.04.2018 04:38 12,1 C 11,7 C 11,1 C 97 % 15 lf 995,8 hPa 0,0 l/m 0 min 0 min 0 W/m 2,3 km/h (1 Bft) 100,00 %
30.04.2018 04:40 12,1 C 11,7 C 11,1 C 97 % 15 lf 995,6 hPa 0,0 l/m 0 min 0 min 0 W/m 6,8 km/h (2 Bft) 100,00 %
30.04.2018 04:42 12,1 C 11,7 C 11,1 C 97 % 15 lf 995,5 hPa 0,0 l/m 0 min 0 min 0 W/m 6,8 km/h (2 Bft) 97,87 %
30.04.2018 04:44 12,1 C 11,7 C 11,1 C 97 % 15 lf 995,6 hPa 0,0 l/m 0 min 0 min 0 W/m 9,0 km/h (2 Bft) 97,87 %
30.04.2018 04:46 12,1 C 11,7 C 10,6 C 97 % 15 lf 995,6 hPa 0,0 l/m 0 min 0 min 0 W/m 9,0 km/h (2 Bft) 100,00 %
30.04.2018 04:48 12,1 C 11,7 C 11,1 C 97 % 15 lf 995,5 hPa 0,0 l/m 0 min 0 min 0 W/m 9,0 km/h (2 Bft) 97,87 %
30.04.2018 04:50 12,1 C 11,7 C 10,6 C 97 % 15 lf 995,5 hPa 0,0 l/m 0 min 0 min 0 W/m 9,0 km/h (2 Bft) 100,00 %
30.04.2018 04:52 12,1 C 11,7 C 11,1 C 97 % 15 lf 995,5 hPa 0,0 l/m 0 min 0 min 0 W/m 11,3 km/h (2 Bft) 97,87 %
30.04.2018 04:54 12,1 C 11,7 C 11,1 C 97 % 15 lf 995,4 hPa 0,0 l/m 0 min 0 min 0 W/m 15,8 km/h (3 Bft) 100,00 %
30.04.2018 04:56 12,1 C 11,7 C 11,1 C 97 % 15 lf 995,4 hPa 0,0 l/m 0 min 0 min 0 W/m 13,5 km/h (3 Bft) 100,00 %
30.04.2018 04:58 12,1 C 11,1 C 10,6 C 97 % 15 lf 995,3 hPa 0,0 l/m 0 min 0 min 0 W/m 11,3 km/h (2 Bft) 100,00 %
30.04.2018 05:00 12,1 C 11,1 C 10,6 C 97 % 15 lf 995,3 hPa 0,0 l/m 0 min 0 min 0 W/m 9,0 km/h (2 Bft) 100,00 %
30.04.2018 05:02 12,1 C 11,1 C 10,6 C 97 % 15 lf 995,4 hPa 0,0 l/m 0 min 0 min 0 W/m 11,3 km/h (2 Bft) 93,48 %
30.04.2018 05:04 12,1 C 11,1 C 10,6 C 97 % 15 lf 995,5 hPa 0,0 l/m 0 min 0 min 0 W/m 13,5 km/h (3 Bft) 100,00 %
30.04.2018 05:06 12,1 C 11,1 C 10,6 C 97 % 15 lf 995,5 hPa 0,0 l/m 0 min 0 min 0 W/m 9,0 km/h (2 Bft) 100,00 %
30.04.2018 05:08 12,1 C 11,1 C 10,6 C 97 % 15 lf 995,5 hPa 0,0 l/m 0 min 0 min 0 W/m 6,8 km/h (2 Bft) 100,00 %
30.04.2018 05:10 12,0 C 11,1 C 10,6 C 97 % 15 lf 995,5 hPa 0,0 l/m 0 min 0 min 0 W/m 6,8 km/h (2 Bft) 100,00 %
30.04.2018 05:12 12,0 C 11,1 C 10,6 C 97 % 15 lf 995,6 hPa 0,0 l/m 0 min 0 min 0 W/m 9,0 km/h (2 Bft) 100,00 %
30.04.2018 05:14 12,0 C 11,1 C 10,6 C 97 % 15 lf 995,5 hPa 0,0 l/m 0 min 0 min 0 W/m 6,8 km/h (2 Bft) 97,83 %
30.04.2018 05:16 12,0 C 11,1 C 10,6 C 97 % 15 lf 995,4 hPa 0,0 l/m 0 min 0 min 0 W/m 4,5 km/h (1 Bft) 100,00 %
30.04.2018 05:18 12,0 C 11,1 C 10,6 C 97 % 15 lf 995,4 hPa 0,0 l/m 0 min 0 min 0 W/m 15,8 km/h (3 Bft) 93,62 %
30.04.2018 05:20 12,0 C 11,1 C 10,6 C 97 % 15 lf 995,5 hPa 0,0 l/m 0 min 0 min 0 W/m 13,5 km/h (3 Bft) 100,00 %
30.04.2018 05:22 11,9 C 11,1 C 10,6 C 97 % 15 lf 995,5 hPa 0,0 l/m 0 min 0 min 0 W/m 11,3 km/h (2 Bft) 97,87 %
30.04.2018 05:24 11,9 C 11,1 C 10,6 C 97 % 15 lf 995,5 hPa 0,0 l/m 0 min 0 min 0 W/m 9,0 km/h (2 Bft) 97,87 %
30.04.2018 05:26 11,9 C 11,1 C 10,6 C 97 % 15 lf 995,6 hPa 0,0 l/m 0 min 0 min 0 W/m 11,3 km/h (2 Bft) 97,83 %
30.04.2018 05:28 11,9 C 11,1 C 10,6 C 97 % 15 lf 995,7 hPa 0,0 l/m 0 min 0 min 0 W/m 11,3 km/h (2 Bft) 97,87 %
30.04.2018 05:30 11,8 C 11,1 C 10,6 C 97 % 15 lf 995,8 hPa 0,0 l/m 0 min 0 min 0 W/m 11,3 km/h (2 Bft) 95,74 %
30.04.2018 05:32 11,8 C 11,1 C 10,6 C 97 % 15 lf 995,9 hPa 0,0 l/m 0 min 0 min 0 W/m 4,5 km/h (1 Bft) 95,74 %
30.04.2018 05:34 11,8 C 11,1 C 10,6 C 97 % 15 lf 995,9 hPa 0,0 l/m 0 min 0 min 0 W/m 6,8 km/h (2 Bft) 100,00 %
30.04.2018 05:35 11,8 C 11,1 C 10,6 C 97 % 15 lf 995,9 hPa 0,0 l/m 0 min 0 min 0 W/m 6,8 km/h (2 Bft) 100,00 %
30.04.2018 05:40 11,8 C 11,1 C 10,6 C 97 % 15 lf 995,9 hPa 0,0 l/m 0 min 0 min 0 W/m 9,0 km/h (2 Bft) 100,00 %
30.04.2018 05:42 11,8 C 11,1 C 10,6 C 97 % 15 lf 995,9 hPa 0,0 l/m 0 min 0 min 0 W/m 9,0 km/h (2 Bft) 97,87 %
30.04.2018 05:47 11,7 C 11,1 C 10,6 C 97 % 15 lf 995,8 hPa 0,0 l/m 0 min 0 min 0 W/m 11,3 km/h (2 Bft) 96,92 %
30.04.2018 05:48 11,7 C 11,1 C 10,6 C 97 % 15 lf 995,8 hPa 0,0 l/m 0 min 0 min 0 W/m 9,0 km/h (2 Bft) 100,00 %
30.04.2018 05:50 11,7 C 11,1 C 10,6 C 97 % 15 lf 995,7 hPa 0,0 l/m 0 min 0 min 0 W/m 4,5 km/h (1 Bft) 100,00 %
30.04.2018 05:52 11,7 C 11,1 C 10,6 C 97 % 15 lf 995,7 hPa 0,0 l/m 0 min 0 min 0 W/m 6,8 km/h (2 Bft) 97,14 %
30.04.2018 05:54 11,7 C 11,1 C 10,6 C 97 % 15 lf 995,7 hPa 0,0 l/m 0 min 0 min 0 W/m 4,5 km/h (1 Bft) 93,62 %
30.04.2018 05:56 11,7 C 11,1 C 10,6 C 97 % 15 lf 995,8 hPa 0,0 l/m 0 min 0 min 0 W/m 9,0 km/h (2 Bft) 89,36 %
30.04.2018 05:58 11,7 C 11,1 C 10,6 C 97 % 15 lf 995,9 hPa 0,0 l/m 0 min 2 min 0 W/m 6,8 km/h (2 Bft) 97,87 %
30.04.2018 06:00 11,7 C 11,1 C 10,6 C 97 % 15 lf 996,0 hPa 0,0 l/m 0 min 2 min 0 W/m 11,3 km/h (2 Bft) 97,83 %
30.04.2018 06:02 11,6 C 11,1 C 10,6 C 97 % 15 lf 995,9 hPa 0,0 l/m 0 min 2 min 0 W/m 6,8 km/h (2 Bft) 93,62 %
30.04.2018 06:04 11,6 C 11,1 C 10,6 C 97 % 15 lf 995,9 hPa 0,0 l/m 0 min 2 min 0 W/m 6,8 km/h (2 Bft) 100,00 %
30.04.2018 06:08 11,6 C 11,1 C 10,6 C 97 % 15 lf 996,1 hPa 0,0 l/m 0 min 0 min 0 W/m 9,0 km/h (2 Bft) 97,03 %
30.04.2018 06:10 11,6 C 11,1 C 10,6 C 97 % 15 lf 996,2 hPa 0,0 l/m 0 min 0 min 0 W/m 9,0 km/h (2 Bft) 93,62 %
30.04.2018 06:12 11,6 C 11,1 C 10,6 C 97 % 15 lf 996,1 hPa 0,0 l/m 0 min 0 min 0 W/m 6,8 km/h (2 Bft) 95,65 %
30.04.2018 06:14 11,6 C 11,1 C 10,6 C 97 % 15 lf 996,1 hPa 0,0 l/m 0 min 0 min 0 W/m 9,0 km/h (2 Bft) 93,62 %
30.04.2018 06:16 11,6 C 11,1 C 10,6 C 97 % 15 lf 996,1 hPa 0,0 l/m 0 min 2 min 0 W/m 11,3 km/h (2 Bft) 93,62 %
30.04.2018 06:18 11,6 C 11,1 C 10,6 C 97 % 15 lf 996,2 hPa 0,0 l/m 0 min 2 min 0 W/m 11,3 km/h (2 Bft) 95,74 %
30.04.2018 06:20 11,6 C 11,1 C 10,6 C 97 % 15 lf 996,3 hPa 0,2 l/m 0 min 2 min 0 W/m 11,3 km/h (2 Bft) 95,74 %
30.04.2018 06:22 11,6 C 11,1 C 10,6 C 97 % 15 lf 996,4 hPa 0,0 l/m 0 min 2 min 0 W/m 13,5 km/h (3 Bft) 95,74 %
30.04.2018 06:24 11,6 C 11,1 C 10,6 C 97 % 15 lf 996,3 hPa 0,0 l/m 0 min 0 min 0 W/m 13,5 km/h (3 Bft) 97,83 %
30.04.2018 06:26 11,6 C 11,1 C 10,6 C 97 % 15 lf 996,4 hPa 0,0 l/m 0 min 0 min 0 W/m 11,3 km/h (2 Bft) 95,74 %
30.04.2018 06:28 11,6 C 11,1 C 10,6 C 97 % 15 lf 996,3 hPa 0,0 l/m 0 min 0 min 0 W/m 9,0 km/h (2 Bft) 89,36 %
30.04.2018 06:30 11,7 C 11,1 C 10,6 C 97 % 15 lf 996,3 hPa 0,0 l/m 0 min 0 min 0 W/m 11,3 km/h (2 Bft) 95,74 %
30.04.2018 06:32 11,7 C 11,1 C 10,6 C 97 % 15 lf 996,3 hPa 0,0 l/m 0 min 0 min 1 W/m 13,5 km/h (3 Bft) 95,74 %
30.04.2018 06:34 11,7 C 11,1 C 10,6 C 97 % 15 lf 996,2 hPa 0,0 l/m 0 min 0 min 5 W/m 6,8 km/h (2 Bft) 95,74 %
30.04.2018 06:36 11,7 C 11,1 C 10,6 C 97 % 15 lf 996,1 hPa 0,0 l/m 0 min 0 min 5 W/m 11,3 km/h (2 Bft) 97,83 %
30.04.2018 06:38 11,7 C 11,1 C 10,6 C 97 % 15 lf 996,1 hPa 0,0 l/m 0 min 0 min 2 W/m 11,3 km/h (2 Bft) 95,74 %
30.04.2018 06:40 11,7 C 11,1 C 10,6 C 97 % 15 lf 996,2 hPa 0,0 l/m 0 min 0 min 0 W/m 13,5 km/h (3 Bft) 97,87 %
30.04.2018 06:42 11,7 C 11,1 C 10,6 C 97 % 15 lf 996,3 hPa 0,0 l/m 0 min 0 min 0 W/m 15,8 km/h (3 Bft) 97,87 %
30.04.2018 06:44 11,7 C 11,1 C 10,6 C 97 % 15 lf 996,3 hPa 0,0 l/m 0 min 0 min 0 W/m 22,5 km/h (4 Bft) 91,49 %
30.04.2018 06:46 11,7 C 11,1 C 10,6 C 97 % 15 lf 996,3 hPa 0,0 l/m 0 min 0 min 4 W/m 15,8 km/h (3 Bft) 95,74 %
30.04.2018 06:48 11,7 C 11,1 C 10,6 C 97 % 15 lf 996,3 hPa 0,0 l/m 0 min 0 min 5 W/m 20,3 km/h (4 Bft) 95,65 %
30.04.2018 06:50 11,7 C 11,1 C 10,6 C 97 % 15 lf 996,3 hPa 0,0 l/m 0 min 0 min 6 W/m 18,0 km/h (3 Bft) 95,74 %
30.04.2018 06:52 11,7 C 11,1 C 10,6 C 97 % 15 lf 996,3 hPa 0,0 l/m 0 min 0 min 7 W/m 18,0 km/h (3 Bft) 95,74 %
30.04.2018 06:54 11,7 C 11,1 C 10,6 C 97 % 15 lf 996,3 hPa 0,0 l/m 0 min 0 min 8 W/m 27,0 km/h (4 Bft) 95,74 %
30.04.2018 06:56 11,7 C 11,1 C 10,6 C 97 % 15 lf 996,3 hPa 0,0 l/m 0 min 0 min 10 W/m 22,5 km/h (4 Bft) 91,49 %
30.04.2018 06:58 11,8 C 11,1 C 10,6 C 97 % 15 lf 996,3 hPa 0,0 l/m 0 min 0 min 11 W/m 15,8 km/h (3 Bft) 95,74 %
30.04.2018 07:00 11,8 C 11,1 C 10,6 C 97 % 15 lf 996,4 hPa 0,0 l/m 0 min 0 min 9 W/m 18,0 km/h (3 Bft) 97,83 %
30.04.2018 07:02 11,8 C 11,1 C 10,6 C 97 % 15 lf 996,5 hPa 0,0 l/m 0 min 0 min 8 W/m 20,3 km/h (4 Bft) 89,36 %
30.04.2018 07:04 11,8 C 11,1 C 10,6 C 97 % 15 lf 996,5 hPa 0,0 l/m 0 min 0 min 8 W/m 13,5 km/h (3 Bft) 95,74 %
30.04.2018 07:06 11,8 C 11,1 C 10,6 C 97 % 15 lf 996,4 hPa 0,0 l/m 0 min 0 min 13 W/m 24,8 km/h (4 Bft) 93,62 %
30.04.2018 07:08 11,8 C 11,1 C 10,6 C 97 % 15 lf 996,4 hPa 0,0 l/m 0 min 0 min 18 W/m 11,3 km/h (2 Bft) 95,74 %
30.04.2018 07:10 11,8 C 11,1 C 10,6 C 97 % 15 lf 996,6 hPa 0,0 l/m 0 min 0 min 16 W/m 24,8 km/h (4 Bft) 95,74 %
30.04.2018 07:12 11,8 C 11,1 C 10,6 C 97 % 15 lf 996,7 hPa 0,0 l/m 0 min 0 min 19 W/m 22,5 km/h (4 Bft) 97,83 %
30.04.2018 07:14 11,8 C 11,1 C 10,6 C 97 % 15 lf 996,7 hPa 0,0 l/m 0 min 0 min 24 W/m 24,8 km/h (4 Bft) 95,74 %
30.04.2018 07:16 11,8 C 11,7 C 10,6 C 98 % 15 lf 996,6 hPa 0,0 l/m 0 min 0 min 28 W/m 24,8 km/h (4 Bft) 95,24 %
30.04.2018 07:18 11,8 C 11,7 C 10,6 C 98 % 15 lf 996,6 hPa 0,0 l/m 0 min 0 min 29 W/m 29,3 km/h (5 Bft) 95,74 %
30.04.2018 07:20 11,9 C 11,1 C 10,6 C 98 % 15 lf 996,6 hPa 0,0 l/m 0 min 0 min 26 W/m 22,5 km/h (4 Bft) 97,87 %
30.04.2018 07:22 11,8 C 11,7 C 10,6 C 98 % 15 lf 996,6 hPa 0,0 l/m 0 min 0 min 24 W/m 22,5 km/h (4 Bft) 97,83 %
30.04.2018 07:24 11,9 C 11,7 C 10,6 C 98 % 15 lf 996,6 hPa 0,0 l/m 0 min 0 min 21 W/m 22,5 km/h (4 Bft) 93,62 %
30.04.2018 07:26 11,8 C 11,1 C 10,6 C 98 % 15 lf 996,7 hPa 0,0 l/m 0 min 0 min 19 W/m 31,5 km/h (5 Bft) 95,74 %
30.04.2018 07:28 11,8 C 11,1 C 10,6 C 98 % 15 lf 996,6 hPa 0,0 l/m 0 min 0 min 16 W/m 24,8 km/h (4 Bft) 95,74 %
30.04.2018 07:30 11,8 C 11,1 C 10,6 C 98 % 15 lf 996,6 hPa 0,0 l/m 0 min 0 min 16 W/m 24,8 km/h (4 Bft) 93,62 %
30.04.2018 07:32 11,8 C 11,1 C 10,6 C 98 % 15 lf 996,7 hPa 0,0 l/m 0 min 0 min 18 W/m 18,0 km/h (3 Bft) 95,74 %
30.04.2018 07:34 11,8 C 11,1 C 10,6 C 98 % 15 lf 996,6 hPa 0,0 l/m 0 min 0 min 20 W/m 20,3 km/h (4 Bft) 95,65 %
30.04.2018 07:36 11,8 C 11,1 C 10,6 C 98 % 15 lf 996,5 hPa 0,0 l/m 0 min 0 min 24 W/m 24,8 km/h (4 Bft) 91,49 %
30.04.2018 07:38 11,8 C 11,1 C 10,6 C 98 % 15 lf 996,5 hPa 0,0 l/m 0 min 0 min 26 W/m 27,0 km/h (4 Bft) 97,87 %
30.04.2018 07:40 11,8 C 11,1 C 10,6 C 98 % 15 lf 996,5 hPa 0,0 l/m 0 min 0 min 24 W/m 29,3 km/h (5 Bft) 95,74 %
30.04.2018 07:42 11,7 C 11,1 C 10,6 C 98 % 15 lf 996,5 hPa 0,0 l/m 0 min 0 min 21 W/m 24,8 km/h (4 Bft) 97,87 %
30.04.2018 07:44 11,7 C 11,1 C 10,6 C 98 % 15 lf 996,5 hPa 0,0 l/m 0 min 0 min 18 W/m 24,8 km/h (4 Bft) 97,87 %
30.04.2018 07:46 11,7 C 11,1 C 10,6 C 98 % 15 lf 996,6 hPa 0,0 l/m 0 min 0 min 16 W/m 27,0 km/h (4 Bft) 97,87 %
30.04.2018 07:48 11,7 C 11,1 C 10,6 C 98 % 15 lf 996,6 hPa 0,0 l/m 0 min 0 min 15 W/m 22,5 km/h (4 Bft) 95,74 %
30.04.2018 07:50 11,7 C 11,1 C 10,6 C 98 % 15 lf 996,8 hPa 0,0 l/m 0 min 0 min 16 W/m 27,0 km/h (4 Bft) 97,87 %
30.04.2018 07:52 11,7 C 11,1 C 10,6 C 97 % 15 lf 996,7 hPa 0,0 l/m 0 min 0 min 20 W/m 24,8 km/h (4 Bft) 93,62 %
30.04.2018 07:54 11,7 C 11,1 C 10,6 C 97 % 15 lf 996,7 hPa 0,0 l/m 0 min 0 min 26 W/m 18,0 km/h (3 Bft) 97,87 %
30.04.2018 07:56 11,8 C 11,1 C 10,6 C 97 % 15 lf 996,6 hPa 0,0 l/m 0 min 0 min 26 W/m 22,5 km/h (4 Bft) 97,83 %
30.04.2018 07:58 11,8 C 11,1 C 10,6 C 97 % 15 lf 996,8 hPa 0,0 l/m 0 min 0 min 25 W/m 18,0 km/h (3 Bft) 100,00 %
30.04.2018 08:00 11,8 C 11,1 C 10,6 C 97 % 15 lf 996,7 hPa 0,0 l/m 0 min 0 min 25 W/m 22,5 km/h (4 Bft) 100,00 %
30.04.2018 08:02 11,8 C 11,1 C 10,6 C 97 % 15 lf 996,9 hPa 0,0 l/m 0 min 0 min 27 W/m 15,8 km/h (3 Bft) 100,00 %
30.04.2018 08:04 11,8 C 11,1 C 10,6 C 97 % 15 lf 996,9 hPa 0,0 l/m 0 min 0 min 31 W/m 15,8 km/h (3 Bft) 100,00 %
30.04.2018 08:06 11,8 C 11,1 C 10,6 C 97 % 15 lf 996,9 hPa 0,0 l/m 0 min 2 min 34 W/m 11,3 km/h (2 Bft) 95,74 %
30.04.2018 08:08 11,8 C 11,1 C 10,6 C 97 % 15 lf 996,8 hPa 0,0 l/m 0 min 2 min 40 W/m 31,5 km/h (5 Bft) 100,00 %
30.04.2018 08:10 11,8 C 11,1 C 10,6 C 97 % 15 lf 996,9 hPa 0,0 l/m 0 min 2 min 44 W/m 22,5 km/h (4 Bft) 100,00 %
30.04.2018 08:12 11,8 C 11,1 C 10,6 C 97 % 15 lf 996,9 hPa 0,0 l/m 0 min 2 min 50 W/m 20,3 km/h (4 Bft) 100,00 %
30.04.2018 08:14 11,8 C 11,1 C 10,6 C 97 % 15 lf 996,9 hPa 0,0 l/m 0 min 2 min 57 W/m 20,3 km/h (4 Bft) 100,00 %
30.04.2018 08:16 11,8 C 11,7 C 10,6 C 97 % 15 lf 996,9 hPa 0,0 l/m 0 min 0 min 58 W/m 20,3 km/h (4 Bft) 100,00 %
30.04.2018 08:18 11,8 C 11,7 C 10,6 C 97 % 15 lf 996,9 hPa 0,0 l/m 0 min 0 min 69 W/m 18,0 km/h (3 Bft) 100,00 %
30.04.2018 08:20 11,8 C 11,7 C 10,6 C 97 % 15 lf 996,7 hPa 0,0 l/m 0 min 0 min 82 W/m 22,5 km/h (4 Bft) 100,00 %
30.04.2018 08:22 11,8 C 11,1 C 10,6 C 97 % 15 lf 996,9 hPa 0,0 l/m 0 min 0 min 77 W/m 24,8 km/h (4 Bft) 100,00 %
30.04.2018 08:24 11,8 C 11,7 C 10,6 C 97 % 15 lf 996,9 hPa 0,0 l/m 0 min 2 min 64 W/m 18,0 km/h (3 Bft) 100,00 %
30.04.2018 08:26 11,8 C 11,1 C 10,6 C 97 % 15 lf 997,0 hPa 0,0 l/m 0 min 0 min 52 W/m 20,3 km/h (4 Bft) 100,00 %
30.04.2018 08:28 11,8 C 11,1 C 10,6 C 97 % 15 lf 997,0 hPa 0,0 l/m 0 min 0 min 46 W/m 20,3 km/h (4 Bft) 97,87 %
30.04.2018 08:30 11,8 C 11,1 C 10,6 C 97 % 15 lf 997,1 hPa 0,0 l/m 0 min 2 min 45 W/m 13,5 km/h (3 Bft) 97,87 %
30.04.2018 08:32 11,8 C 11,1 C 10,6 C 97 % 15 lf 997,2 hPa 0,0 l/m 0 min 0 min 41 W/m 20,3 km/h (4 Bft) 97,83 %
30.04.2018 08:34 11,8 C 11,1 C 10,6 C 97 % 15 lf 997,3 hPa 0,0 l/m 0 min 0 min 35 W/m 22,5 km/h (4 Bft) 97,87 %
30.04.2018 08:36 11,8 C 11,1 C 10,6 C 97 % 15 lf 997,4 hPa 0,0 l/m 0 min 0 min 30 W/m 15,8 km/h (3 Bft) 93,62 %
30.04.2018 08:38 11,8 C 11,1 C 10,6 C 97 % 15 lf 997,5 hPa 0,0 l/m 0 min 0 min 26 W/m 13,5 km/h (3 Bft) 95,74 %
30.04.2018 08:40 11,8 C 11,1 C 10,6 C 97 % 15 lf 997,5 hPa 0,0 l/m 0 min 0 min 34 W/m 24,8 km/h (4 Bft) 97,87 %
30.04.2018 08:42 11,8 C 11,1 C 10,6 C 97 % 15 lf 997,6 hPa 0,0 l/m 0 min 2 min 40 W/m 13,5 km/h (3 Bft) 97,87 %
30.04.2018 08:44 11,8 C 11,1 C 10,6 C 97 % 15 lf 997,6 hPa 0,0 l/m 0 min 2 min 50 W/m 15,8 km/h (3 Bft) 95,65 %
30.04.2018 08:46 11,8 C 11,1 C 10,6 C 97 % 15 lf 997,6 hPa 0,0 l/m 0 min 2 min 55 W/m 18,0 km/h (3 Bft) 95,83 %
30.04.2018 08:48 11,9 C 11,1 C 10,6 C 97 % 15 lf 997,6 hPa 0,0 l/m 0 min 2 min 60 W/m 31,5 km/h (5 Bft) 97,87 %
30.04.2018 08:50 11,9 C 11,1 C 10,6 C 97 % 15 lf 997,7 hPa 0,0 l/m 0 min 2 min 77 W/m 24,8 km/h (4 Bft) 97,87 %
30.04.2018 08:52 11,9 C 11,7 C 10,6 C 97 % 15 lf 997,6 hPa 0,0 l/m 0 min 2 min 81 W/m 24,8 km/h (4 Bft) 95,74 %
30.04.2018 08:54 11,9 C 11,1 C 10,6 C 97 % 15 lf 997,6 hPa 0,0 l/m 0 min 2 min 89 W/m 24,8 km/h (4 Bft) 95,65 %
30.04.2018 08:56 11,9 C 11,7 C 10,6 C 97 % 15 lf 997,6 hPa 0,0 l/m 0 min 2 min 108 W/m 22,5 km/h (4 Bft) 95,74 %
30.04.2018 08:58 11,9 C 11,7 C 11,1 C 97 % 15 lf 997,5 hPa 0,0 l/m 0 min 2 min 126 W/m 15,8 km/h (3 Bft) 97,87 %
30.04.2018 09:00 11,9 C 11,7 C 11,1 C 97 % 15 lf 997,6 hPa 0,0 l/m 0 min 2 min 136 W/m 13,5 km/h (3 Bft) 91,49 %
30.04.2018 09:02 11,9 C 11,7 C 11,1 C 97 % 15 lf 997,6 hPa 0,0 l/m 0 min 2 min 130 W/m 18,0 km/h (3 Bft) 92,00 %
30.04.2018 09:04 11,9 C 11,1 C 11,1 C 97 % 15 lf 997,6 hPa 0,0 l/m 0 min 2 min 120 W/m 27,0 km/h (4 Bft) 97,87 %
30.04.2018 09:06 11,9 C 11,7 C 11,1 C 97 % 15 lf 997,6 hPa 0,0 l/m 0 min 2 min 116 W/m 18,0 km/h (3 Bft) 95,65 %
30.04.2018 09:08 11,9 C 11,7 C 11,1 C 97 % 15 lf 997,6 hPa 0,0 l/m 0 min 2 min 110 W/m 27,0 km/h (4 Bft) 97,87 %
30.04.2018 09:10 12,0 C 11,7 C 11,1 C 97 % 15 lf 997,6 hPa 0,0 l/m 0 min 2 min 91 W/m 13,5 km/h (3 Bft) 95,74 %
30.04.2018 09:12 12,0 C 11,1 C 10,6 C 97 % 15 lf 997,6 hPa 0,0 l/m 0 min 2 min 77 W/m 20,3 km/h (4 Bft) 93,62 %
30.04.2018 09:14 11,9 C 11,1 C 10,6 C 96 % 15 lf 997,6 hPa 0,0 l/m 0 min 2 min 72 W/m 22,5 km/h (4 Bft) 97,87 %
30.04.2018 09:16 11,9 C 11,1 C 10,6 C 96 % 15 lf 997,6 hPa 0,0 l/m 0 min 2 min 67 W/m 20,3 km/h (4 Bft) 97,87 %
30.04.2018 09:18 11,9 C 11,1 C 10,6 C 96 % 15 lf 997,7 hPa 0,0 l/m 0 min 2 min 66 W/m 15,8 km/h (3 Bft) 97,83 %
30.04.2018 09:20 11,9 C 11,1 C 10,6 C 96 % 15 lf 997,7 hPa 0,0 l/m 0 min 2 min 61 W/m 11,3 km/h (2 Bft) 100,00 %
30.04.2018 09:22 11,9 C 11,1 C 10,6 C 96 % 15 lf 997,7 hPa 0,0 l/m 0 min 2 min 63 W/m 18,0 km/h (3 Bft) 100,00 %
30.04.2018 09:24 11,9 C 11,1 C 10,6 C 96 % 15 lf 997,7 hPa 0,0 l/m 0 min 2 min 58 W/m 18,0 km/h (3 Bft) 95,74 %
30.04.2018 09:26 11,9 C 11,1 C 10,6 C 96 % 15 lf 997,7 hPa 0,0 l/m 0 min 2 min 51 W/m 13,5 km/h (3 Bft) 95,74 %
30.04.2018 09:28 11,8 C 11,1 C 10,6 C 96 % 15 lf 997,7 hPa 0,0 l/m 0 min 2 min 53 W/m 15,8 km/h (3 Bft) 95,74 %
30.04.2018 09:30 11,8 C 11,1 C 10,6 C 96 % 15 lf 997,8 hPa 0,0 l/m 0 min 0 min 59 W/m 9,0 km/h (2 Bft) 93,48 %
30.04.2018 09:32 11,8 C 11,1 C 10,6 C 96 % 15 lf 997,8 hPa 0,0 l/m 0 min 0 min 62 W/m 13,5 km/h (3 Bft) 93,62 %
30.04.2018 09:34 11,8 C 11,1 C 10,6 C 96 % 15 lf 997,8 hPa 0,0 l/m 0 min 0 min 62 W/m 18,0 km/h (3 Bft) 91,49 %
30.04.2018 09:36 11,8 C 11,1 C 10,6 C 96 % 15 lf 997,9 hPa 0,0 l/m 0 min 0 min 71 W/m 15,8 km/h (3 Bft) 93,62 %
30.04.2018 09:38 11,8 C 11,1 C 10,6 C 96 % 15 lf 997,8 hPa 0,0 l/m 0 min 0 min 86 W/m 13,5 km/h (3 Bft) 93,62 %
30.04.2018 09:40 11,8 C 11,1 C 11,1 C 96 % 15 lf 997,8 hPa 0,0 l/m 0 min 0 min 101 W/m 15,8 km/h (3 Bft) 95,74 %
30.04.2018 09:42 11,8 C 11,1 C 11,1 C 96 % 15 lf 997,8 hPa 0,0 l/m 0 min 0 min 95 W/m 11,3 km/h (2 Bft) 89,13 %
30.04.2018 09:44 11,8 C 11,1 C 11,1 C 96 % 15 lf 997,8 hPa 0,0 l/m 0 min 0 min 78 W/m 15,8 km/h (3 Bft) 97,87 %
30.04.2018 09:46 11,8 C 11,1 C 11,1 C 96 % 15 lf 997,8 hPa 0,0 l/m 0 min 2 min 72 W/m 13,5 km/h (3 Bft) 91,67 %
30.04.2018 09:48 11,8 C 11,1 C 11,1 C 96 % 15 lf 997,7 hPa 0,0 l/m 0 min 2 min 72 W/m 11,3 km/h (2 Bft) 93,62 %
30.04.2018 09:50 11,8 C 11,1 C 11,1 C 96 % 15 lf 997,7 hPa 0,0 l/m 0 min 0 min 79 W/m 13,5 km/h (3 Bft) 91,49 %
30.04.2018 09:52 11,9 C 11,1 C 11,1 C 96 % 15 lf 997,7 hPa 0,0 l/m 0 min 0 min 88 W/m 15,8 km/h (3 Bft) 91,49 %
30.04.2018 09:54 11,9 C 11,1 C 11,1 C 96 % 15 lf 997,7 hPa 0,0 l/m 0 min 2 min 101 W/m 18,0 km/h (3 Bft) 91,30 %
30.04.2018 09:56 11,9 C 11,1 C 11,1 C 96 % 15 lf 997,7 hPa 0,0 l/m 0 min 0 min 112 W/m 18,0 km/h (3 Bft) 91,49 %
30.04.2018 09:58 11,8 C 11,1 C 11,1 C 96 % 15 lf 997,7 hPa 0,0 l/m 0 min 0 min 109 W/m 20,3 km/h (4 Bft) 93,62 %
30.04.2018 10:00 11,8 C 11,1 C 10,6 C 95 % 15 lf 997,8 hPa 0,0 l/m 0 min 0 min 96 W/m 18,0 km/h (3 Bft) 91,49 %
30.04.2018 10:02 11,8 C 11,1 C 11,1 C 95 % 15 lf 997,7 hPa 0,0 l/m 0 min 0 min 93 W/m 11,3 km/h (2 Bft) 93,62 %
30.04.2018 10:04 11,8 C 11,7 C 11,1 C 95 % 15 lf 997,7 hPa 0,0 l/m 0 min 0 min 106 W/m 13,5 km/h (3 Bft) 95,65 %
30.04.2018 10:08 11,9 C 11,7 C 11,1 C 95 % 15 lf 997,7 hPa 0,0 l/m 0 min 0 min 101 W/m 15,8 km/h (3 Bft) 93,62 %
30.04.2018 10:10 11,9 C 11,7 C 11,1 C 95 % 15 lf 997,7 hPa 0,0 l/m 0 min 0 min 100 W/m 11,3 km/h (2 Bft) 95,74 %
30.04.2018 10:12 11,9 C 11,7 C 11,1 C 95 % 14 lf 997,7 hPa 0,0 l/m 0 min 0 min 113 W/m 11,3 km/h (2 Bft) 93,62 %
30.04.2018 10:14 11,9 C 11,7 C 11,1 C 95 % 12 lf 997,7 hPa 0,0 l/m 0 min 0 min 127 W/m 18,0 km/h (3 Bft) 93,62 %
30.04.2018 10:16 11,9 C 11,1 C 11,1 C 95 % 10 lf 997,8 hPa 0,0 l/m 0 min 0 min 122 W/m 20,3 km/h (4 Bft) 91,30 %
30.04.2018 10:18 11,8 C 11,7 C 11,1 C 95 % 7 lf 997,8 hPa 0,0 l/m 0 min 0 min 105 W/m 15,8 km/h (3 Bft) 93,62 %
30.04.2018 10:20 11,9 C 11,7 C 11,1 C 95 % 4 lf 997,9 hPa 0,0 l/m 0 min 0 min 92 W/m 24,8 km/h (4 Bft) 95,74 %
30.04.2018 10:22 11,8 C 11,7 C 11,1 C 95 % 3 lf 997,9 hPa 0,0 l/m 0 min 0 min 95 W/m 13,5 km/h (3 Bft) 95,74 %
30.04.2018 10:24 11,9 C 11,1 C 11,1 C 95 % 1 lf 997,9 hPa 0,0 l/m 0 min 0 min 94 W/m 13,5 km/h (3 Bft) 95,74 %
30.04.2018 10:26 11,9 C 11,7 C 11,1 C 95 % 0 lf 997,9 hPa 0,0 l/m 0 min 0 min 96 W/m 15,8 km/h (3 Bft) 95,74 %
30.04.2018 10:28 11,9 C 11,7 C 11,1 C 95 % 0 lf 997,9 hPa 0,0 l/m 0 min 0 min 100 W/m 9,0 km/h (2 Bft) 93,48 %
30.04.2018 10:30 11,9 C 11,7 C 11,1 C 94 % 0 lf 997,8 hPa 0,0 l/m 0 min 0 min 102 W/m 11,3 km/h (2 Bft) 95,74 %
30.04.2018 10:32 11,9 C 11,7 C 11,1 C 94 % 0 lf 997,9 hPa 0,0 l/m 0 min 0 min 118 W/m 18,0 km/h (3 Bft) 97,87 %
30.04.2018 10:34 11,9 C 11,7 C 11,1 C 94 % 0 lf 998,0 hPa 0,0 l/m 0 min 0 min 126 W/m 13,5 km/h (3 Bft) 93,62 %
30.04.2018 10:38 11,9 C 11,7 C 11,1 C 94 % 0 lf 998,0 hPa 0,0 l/m 0 min 0 min 119 W/m 20,3 km/h (4 Bft) 98,94 %
30.04.2018 10:40 12,0 C 12,2 C 11,1 C 94 % 0 lf 998,0 hPa 0,0 l/m 0 min 0 min 117 W/m 15,8 km/h (3 Bft) 97,87 %
30.04.2018 10:42 12,0 C 12,2 C 11,1 C 94 % 0 lf 998,0 hPa 0,0 l/m 0 min 0 min 114 W/m 15,8 km/h (3 Bft) 97,83 %
30.04.2018 10:44 12,1 C 11,7 C 11,1 C 94 % 0 lf 998,1 hPa 0,0 l/m 0 min 0 min 126 W/m 18,0 km/h (3 Bft) 97,87 %
30.04.2018 10:46 12,1 C 11,7 C 11,7 C 94 % 0 lf 998,0 hPa 0,0 l/m 0 min 0 min 142 W/m 18,0 km/h (3 Bft) 97,87 %
30.04.2018 10:48 12,1 C 11,7 C 11,7 C 94 % 0 lf 998,0 hPa 0,0 l/m 0 min 0 min 135 W/m 15,8 km/h (3 Bft) 97,87 %
30.04.2018 10:50 12,1 C 11,7 C 11,7 C 94 % 0 lf 998,1 hPa 0,0 l/m 0 min 0 min 124 W/m 13,5 km/h (3 Bft) 100,00 %
30.04.2018 10:52 12,1 C 11,7 C 11,1 C 93 % 0 lf 998,1 hPa 0,0 l/m 0 min 0 min 114 W/m 22,5 km/h (4 Bft) 100,00 %
30.04.2018 10:54 12,1 C 11,7 C 11,1 C 93 % 0 lf 998,0 hPa 0,0 l/m 0 min 0 min 117 W/m 18,0 km/h (3 Bft) 100,00 %
30.04.2018 10:56 12,1 C 11,7 C 11,1 C 93 % 0 lf 998,0 hPa 0,0 l/m 0 min 0 min 105 W/m 15,8 km/h (3 Bft) 97,87 %
30.04.2018 10:58 12,1 C 11,7 C 11,1 C 93 % 0 lf 998,2 hPa 0,0 l/m 0 min 0 min 106 W/m 18,0 km/h (3 Bft) 100,00 %
30.04.2018 11:00 12,1 C 11,7 C 11,1 C 93 % 0 lf 998,2 hPa 0,0 l/m 0 min 0 min 103 W/m 15,8 km/h (3 Bft) 100,00 %
30.04.2018 11:02 12,2 C 11,7 C 11,1 C 92 % 1 lf 998,2 hPa 0,0 l/m 0 min 0 min 120 W/m 18,0 km/h (3 Bft) 93,62 %
30.04.2018 11:04 12,2 C 11,7 C 11,1 C 92 % 0 lf 998,3 hPa 0,0 l/m 0 min 2 min 132 W/m 15,8 km/h (3 Bft) 97,83 %
30.04.2018 11:06 12,2 C 11,7 C 11,7 C 92 % 0 lf 998,3 hPa 0,0 l/m 0 min 0 min 144 W/m 18,0 km/h (3 Bft) 100,00 %
30.04.2018 11:08 12,2 C 11,7 C 11,1 C 92 % 0 lf 998,4 hPa 0,0 l/m 0 min 0 min 146 W/m 18,0 km/h (3 Bft) 100,00 %
30.04.2018 11:10 12,2 C 11,7 C 11,1 C 92 % 0 lf 998,5 hPa 0,0 l/m 0 min 2 min 144 W/m 20,3 km/h (4 Bft) 97,87 %
30.04.2018 11:12 12,2 C 12,2 C 11,1 C 92 % 0 lf 998,4 hPa 0,0 l/m 0 min 0 min 134 W/m 11,3 km/h (2 Bft) 97,87 %
30.04.2018 11:14 12,3 C 11,7 C 11,1 C 91 % 0 lf 998,4 hPa 0,0 l/m 0 min 0 min 141 W/m 20,3 km/h (4 Bft) 97,87 %
30.04.2018 11:16 12,3 C 11,7 C 11,1 C 91 % 0 lf 998,4 hPa 0,0 l/m 0 min 0 min 155 W/m 20,3 km/h (4 Bft) 97,83 %
30.04.2018 11:18 12,3 C 11,7 C 11,1 C 91 % 0 lf 998,5 hPa 0,0 l/m 0 min 0 min 169 W/m 15,8 km/h (3 Bft) 95,74 %
30.04.2018 11:20 12,3 C 12,2 C 11,1 C 91 % 0 lf 998,4 hPa 0,0 l/m 0 min 0 min 182 W/m 27,0 km/h (4 Bft) 95,74 %
30.04.2018 11:22 12,3 C 11,7 C 11,1 C 90 % 0 lf 998,4 hPa 0,0 l/m 0 min 0 min 201 W/m 22,5 km/h (4 Bft) 97,87 %
30.04.2018 11:24 12,3 C 12,2 C 11,7 C 90 % 0 lf 998,4 hPa 0,0 l/m 0 min 0 min 222 W/m 22,5 km/h (4 Bft) 95,74 %
30.04.2018 11:26 12,3 C 11,7 C 11,7 C 90 % 0 lf 998,5 hPa 0,0 l/m 0 min 0 min 246 W/m 24,8 km/h (4 Bft) 95,74 %
30.04.2018 11:28 12,3 C 11,7 C 11,7 C 90 % 0 lf 998,4 hPa 0,0 l/m 0 min 0 min 262 W/m 20,3 km/h (4 Bft) 95,65 %
30.04.2018 11:30 12,3 C 12,2 C 11,7 C 89 % 0 lf 998,4 hPa 0,0 l/m 0 min 0 min 284 W/m 20,3 km/h (4 Bft) 95,74 %
30.04.2018 11:32 12,4 C 12,2 C 12,2 C 89 % 0 lf 998,3 hPa 0,0 l/m 0 min 0 min 305 W/m 27,0 km/h (4 Bft) 93,62 %
30.04.2018 11:34 12,4 C 12,2 C 12,2 C 89 % 0 lf 998,3 hPa 0,0 l/m 0 min 0 min 315 W/m 20,3 km/h (4 Bft) 95,74 %
30.04.2018 11:36 12,4 C 12,2 C 12,2 C 89 % 0 lf 998,2 hPa 0,0 l/m 0 min 0 min 311 W/m 27,0 km/h (4 Bft) 95,74 %
30.04.2018 11:38 12,5 C 12,2 C 12,2 C 88 % 0 lf 998,2 hPa 0,0 l/m 0 min 0 min 304 W/m 31,5 km/h (5 Bft) 93,62 %
30.04.2018 11:40 12,5 C 12,2 C 12,2 C 88 % 0 lf 998,2 hPa 0,0 l/m 0 min 0 min 299 W/m 27,0 km/h (4 Bft) 95,65 %
30.04.2018 11:42 12,6 C 12,2 C 12,2 C 87 % 0 lf 998,2 hPa 0,0 l/m 0 min 0 min 298 W/m 31,5 km/h (5 Bft) 93,62 %
30.04.2018 11:44 12,6 C 12,2 C 12,2 C 87 % 0 lf 998,2 hPa 0,0 l/m 0 min 0 min 284 W/m 24,8 km/h (4 Bft) 91,49 %
30.04.2018 11:46 12,7 C 12,2 C 12,2 C 87 % 0 lf 998,2 hPa 0,0 l/m 0 min 0 min 261 W/m 31,5 km/h (5 Bft) 95,74 %
30.04.2018 11:48 12,7 C 12,2 C 12,2 C 86 % 0 lf 998,3 hPa 0,0 l/m 0 min 0 min 234 W/m 20,3 km/h (4 Bft) 95,74 %
30.04.2018 11:50 12,7 C 12,2 C 12,2 C 86 % 0 lf 998,3 hPa 0,0 l/m 0 min 0 min 236 W/m 27,0 km/h (4 Bft) 93,62 %
30.04.2018 11:52 12,8 C 12,8 C 12,8 C 86 % 0 lf 998,3 hPa 0,0 l/m 0 min 0 min 247 W/m 20,3 km/h (4 Bft) 93,48 %
30.04.2018 11:54 12,8 C 12,8 C 12,8 C 86 % 0 lf 998,3 hPa 0,0 l/m 0 min 0 min 260 W/m 24,8 km/h (4 Bft) 97,87 %
30.04.2018 11:56 12,9 C 12,8 C 13,3 C 86 % 0 lf 998,3 hPa 0,0 l/m 0 min 0 min 268 W/m 18,0 km/h (3 Bft) 93,62 %
30.04.2018 11:58 12,9 C 13,3 C 13,3 C 85 % 0 lf 998,3 hPa 0,0 l/m 0 min 0 min 290 W/m 18,0 km/h (3 Bft) 97,87 %
30.04.2018 12:00 12,9 C 13,9 C 13,3 C 85 % 0 lf 998,3 hPa 0,0 l/m 0 min 2 min 338 W/m 27,0 km/h (4 Bft) 97,87 %
30.04.2018 12:02 13,0 C 15,0 C 13,9 C 85 % 0 lf 998,3 hPa 0,0 l/m 2 min 0 min 421 W/m 31,5 km/h (5 Bft) 100,00 %
30.04.2018 12:04 13,1 C 16,1 C 15,0 C 85 % 0 lf 998,2 hPa 0,0 l/m 2 min 0 min 495 W/m 27,0 km/h (4 Bft) 100,00 %
30.04.2018 12:08 13,3 C 16,1 C 15,6 C 84 % 0 lf 998,2 hPa 0,0 l/m 4 min 0 min 509 W/m 36,0 km/h (5 Bft) 96,84 %
30.04.2018 12:10 13,3 C 15,6 C 15,0 C 83 % 0 lf 998,2 hPa 0,0 l/m 2 min 0 min 428 W/m 36,0 km/h (5 Bft) 100,00 %
30.04.2018 12:12 13,4 C 15,0 C 15,0 C 82 % 0 lf 998,2 hPa 0,0 l/m 2 min 0 min 432 W/m 36,0 km/h (5 Bft) 97,87 %
30.04.2018 12:14 13,4 C 15,0 C 14,4 C 81 % 0 lf 998,2 hPa 0,0 l/m 0 min 0 min 362 W/m 31,5 km/h (5 Bft) 100,00 %
30.04.2018 12:16 13,4 C 15,0 C 14,4 C 81 % 0 lf 998,3 hPa 0,0 l/m 2 min 0 min 392 W/m 42,8 km/h (6 Bft) 100,00 %
30.04.2018 12:18 13,5 C 15,6 C 15,0 C 81 % 0 lf 998,3 hPa 0,0 l/m 2 min 0 min 414 W/m 27,0 km/h (4 Bft) 100,00 %
30.04.2018 12:20 13,6 C 15,0 C 15,0 C 80 % 0 lf 998,4 hPa 0,0 l/m 2 min 0 min 382 W/m 42,8 km/h (6 Bft) 100,00 %
30.04.2018 12:22 13,6 C 14,4 C 14,4 C 80 % 0 lf 998,3 hPa 0,0 l/m 0 min 0 min 317 W/m 33,8 km/h (5 Bft) 100,00 %
30.04.2018 12:24 13,6 C 13,9 C 14,4 C 79 % 0 lf 998,4 hPa 0,0 l/m 0 min 0 min 286 W/m 38,3 km/h (5 Bft) 95,74 %
30.04.2018 12:26 13,6 C 13,9 C 13,9 C 79 % 0 lf 998,3 hPa 0,0 l/m 0 min 0 min 228 W/m 27,0 km/h (4 Bft) 97,83 %
30.04.2018 12:28 13,6 C 13,9 C 13,3 C 79 % 0 lf 998,4 hPa 0,0 l/m 0 min 0 min 154 W/m 31,5 km/h (5 Bft) 100,00 %
30.04.2018 12:30 13,6 C 13,9 C 13,3 C 79 % 0 lf 998,5 hPa 0,0 l/m 0 min 0 min 146 W/m 31,5 km/h (5 Bft) 100,00 %
30.04.2018 12:32 13,6 C 13,3 C 13,3 C 79 % 0 lf 998,5 hPa 0,0 l/m 0 min 0 min 164 W/m 33,8 km/h (5 Bft) 97,87 %
30.04.2018 12:34 13,5 C 13,3 C 12,8 C 79 % 0 lf 998,5 hPa 0,0 l/m 0 min 0 min 124 W/m 33,8 km/h (5 Bft) 100,00 %
30.04.2018 12:36 13,5 C 13,3 C 12,8 C 79 % 0 lf 998,5 hPa 0,0 l/m 0 min 0 min 100 W/m 22,5 km/h (4 Bft) 100,00 %
30.04.2018 12:38 13,5 C 13,3 C 12,8 C 79 % 0 lf 998,5 hPa 0,0 l/m 0 min 0 min 93 W/m 29,3 km/h (5 Bft) 93,48 %
30.04.2018 12:40 13,4 C 13,3 C 12,8 C 79 % 0 lf 998,5 hPa 0,0 l/m 0 min 0 min 103 W/m 27,0 km/h (4 Bft) 97,87 %
30.04.2018 12:42 13,4 C 13,3 C 12,8 C 79 % 0 lf 998,5 hPa 0,0 l/m 0 min 0 min 120 W/m 29,3 km/h (5 Bft) 93,62 %
30.04.2018 12:44 13,4 C 13,3 C 12,8 C 79 % 0 lf 998,5 hPa 0,0 l/m 0 min 0 min 189 W/m 29,3 km/h (5 Bft) 97,87 %
30.04.2018 12:46 13,3 C 13,9 C 13,3 C 79 % 0 lf 998,3 hPa 0,0 l/m 0 min 0 min 201 W/m 24,8 km/h (4 Bft) 97,87 %
30.04.2018 12:48 13,3 C 13,9 C 13,9 C 79 % 0 lf 998,4 hPa 0,0 l/m 0 min 0 min 210 W/m 40,6 km/h (6 Bft) 100,00 %
30.04.2018 12:50 13,4 C 13,9 C 13,9 C 79 % 0 lf 998,3 hPa 0,0 l/m 0 min 0 min 225 W/m 33,8 km/h (5 Bft) 100,00 %
30.04.2018 12:52 13,4 C 13,9 C 13,9 C 79 % 0 lf 998,4 hPa 0,0 l/m 0 min 0 min 177 W/m 22,5 km/h (4 Bft) 98,00 %
30.04.2018 12:54 13,4 C 13,9 C 13,9 C 80 % 0 lf 998,3 hPa 0,0 l/m 0 min 0 min 154 W/m 27,0 km/h (4 Bft) 95,74 %
30.04.2018 12:56 13,4 C 13,9 C 13,9 C 79 % 0 lf 998,2 hPa 0,0 l/m 0 min 0 min 179 W/m 40,6 km/h (6 Bft) 93,62 %
30.04.2018 12:58 13,4 C 13,9 C 13,9 C 78 % 0 lf 998,2 hPa 0,0 l/m 0 min 0 min 228 W/m 42,8 km/h (6 Bft) 91,30 %
30.04.2018 13:00 13,4 C 14,4 C 13,9 C 77 % 0 lf 998,1 hPa 0,0 l/m 0 min 0 min 261 W/m 20,3 km/h (4 Bft) 95,74 %
30.04.2018 13:02 13,4 C 14,4 C 14,4 C 78 % 0 lf 998,1 hPa 0,0 l/m 0 min 0 min 231 W/m 31,5 km/h (5 Bft) 95,74 %
30.04.2018 13:04 13,4 C 14,4 C 14,4 C 78 % 0 lf 998,2 hPa 0,0 l/m 0 min 0 min 242 W/m 29,3 km/h (5 Bft) 93,62 %
30.04.2018 13:08 13,5 C 13,9 C 14,4 C 77 % 0 lf 998,1 hPa 0,0 l/m 0 min 0 min 221 W/m 31,5 km/h (5 Bft) 94,68 %
30.04.2018 13:10 13,6 C 13,9 C 13,9 C 77 % 0 lf 998,1 hPa 0,0 l/m 0 min 0 min 152 W/m 31,5 km/h (5 Bft) 93,62 %
30.04.2018 13:12 13,6 C 13,9 C 13,9 C 77 % 0 lf 998,1 hPa 0,0 l/m 0 min 0 min 158 W/m 24,8 km/h (4 Bft) 95,65 %
30.04.2018 13:14 13,6 C 14,4 C 13,9 C 77 % 0 lf 998,1 hPa 0,0 l/m 0 min 0 min 229 W/m 22,5 km/h (4 Bft) 95,74 %
30.04.2018 13:16 13,6 C 15,0 C 14,4 C 77 % 0 lf 998,1 hPa 0,0 l/m 0 min 0 min 286 W/m 33,8 km/h (5 Bft) 89,36 %
30.04.2018 13:18 13,7 C 15,6 C 15,0 C 77 % 0 lf 998,1 hPa 0,0 l/m 0 min 0 min 355 W/m 33,8 km/h (5 Bft) 95,74 %
30.04.2018 13:20 13,7 C 15,6 C 15,6 C 77 % 0 lf 998,0 hPa 0,0 l/m 2 min 0 min 406 W/m 24,8 km/h (4 Bft) 93,62 %
30.04.2018 13:22 13,8 C 16,1 C 16,1 C 78 % 0 lf 998,0 hPa 0,0 l/m 0 min 0 min 384 W/m 20,3 km/h (4 Bft) 93,62 %
30.04.2018 13:24 13,8 C 16,7 C 16,1 C 77 % 0 lf 998,1 hPa 0,0 l/m 2 min 0 min 412 W/m 27,0 km/h (4 Bft) 95,65 %
30.04.2018 13:26 13,9 C 16,7 C 16,7 C 77 % 0 lf 998,0 hPa 0,0 l/m 2 min 0 min 473 W/m 27,0 km/h (4 Bft) 93,62 %
30.04.2018 13:28 14,0 C 16,7 C 16,7 C 76 % 0 lf 998,0 hPa 0,0 l/m 2 min 0 min 554 W/m 49,6 km/h (6 Bft) 93,62 %
30.04.2018 13:30 14,2 C 16,7 C 16,7 C 75 % 0 lf 998,0 hPa 0,0 l/m 2 min 0 min 516 W/m 40,6 km/h (6 Bft) 93,62 %
30.04.2018 13:32 14,2 C 16,7 C 16,7 C 75 % 0 lf 998,0 hPa 0,0 l/m 2 min 0 min 473 W/m 40,6 km/h (6 Bft) 93,62 %
30.04.2018 13:34 14,2 C 17,2 C 17,2 C 75 % 0 lf 998,0 hPa 0,0 l/m 2 min 0 min 473 W/m 33,8 km/h (5 Bft) 91,49 %
30.04.2018 13:36 14,3 C 16,1 C 16,7 C 74 % 0 lf 998,0 hPa 0,0 l/m 2 min 0 min 450 W/m 51,8 km/h (7 Bft) 93,48 %
30.04.2018 13:38 14,3 C 15,6 C 16,1 C 73 % 0 lf 998,0 hPa 0,0 l/m 0 min 0 min 345 W/m 40,6 km/h (6 Bft) 93,62 %
30.04.2018 13:40 14,3 C 16,1 C 16,1 C 73 % 0 lf 998,0 hPa 0,0 l/m 0 min 0 min 335 W/m 24,8 km/h (4 Bft) 89,36 %
30.04.2018 13:42 14,4 C 17,2 C 16,7 C 74 % 0 lf 998,1 hPa 0,0 l/m 2 min 0 min 405 W/m 33,8 km/h (5 Bft) 91,49 %
30.04.2018 13:44 14,4 C 17,2 C 16,7 C 73 % 0 lf 998,0 hPa 0,0 l/m 2 min 0 min 424 W/m 31,5 km/h (5 Bft) 93,62 %
30.04.2018 13:46 14,6 C 17,8 C 17,2 C 74 % 0 lf 998,1 hPa 0,0 l/m 2 min 0 min 473 W/m 40,6 km/h (6 Bft) 95,74 %
30.04.2018 13:48 14,7 C 20,0 C 17,2 C 74 % 0 lf 998,0 hPa 0,0 l/m 2 min 0 min 1043 W/m 33,8 km/h (5 Bft) 89,13 %
30.04.2018 13:50 14,8 C 20,0 C 17,2 C 74 % 0 lf 998,1 hPa 0,0 l/m 2 min 0 min 808 W/m 33,8 km/h (5 Bft) 93,62 %
30.04.2018 13:52 15,0 C 22,2 C 17,2 C 74 % 0 lf 998,1 hPa 0,0 l/m 2 min 0 min 1002 W/m 36,0 km/h (5 Bft) 91,49 %
30.04.2018 13:54 15,2 C 21,1 C 16,7 C 72 % 0 lf 998,2 hPa 0,0 l/m 2 min 0 min 1056 W/m 51,8 km/h (7 Bft) 93,62 %
30.04.2018 13:56 15,3 C 20,6 C 16,7 C 71 % 0 lf 998,2 hPa 0,0 l/m 2 min 0 min 998 W/m 47,3 km/h (6 Bft) 95,74 %
30.04.2018 13:58 15,3 C 18,3 C 16,7 C 70 % 0 lf 998,2 hPa 0,0 l/m 2 min 0 min 794 W/m 40,6 km/h (6 Bft) 95,65 %
30.04.2018 14:00 15,4 C 16,7 C 16,1 C 69 % 0 lf 998,1 hPa 0,0 l/m 0 min 0 min 272 W/m 38,3 km/h (5 Bft) 94,74 %
30.04.2018 14:02 15,3 C 16,7 C 16,7 C 70 % 0 lf 998,2 hPa 0,0 l/m 0 min 0 min 313 W/m 29,3 km/h (5 Bft) 93,62 %
30.04.2018 14:04 15,4 C 17,2 C 16,7 C 71 % 0 lf 998,2 hPa 0,0 l/m 2 min 0 min 487 W/m 31,5 km/h (5 Bft) 95,74 %
30.04.2018 14:06 15,3 C 17,2 C 16,7 C 71 % 0 lf 998,3 hPa 0,0 l/m 0 min 0 min 369 W/m 40,6 km/h (6 Bft) 95,74 %
30.04.2018 14:08 15,3 C 18,9 C 17,2 C 71 % 0 lf 998,2 hPa 0,0 l/m 2 min 0 min 802 W/m 49,6 km/h (6 Bft) 97,87 %
30.04.2018 14:10 15,4 C 20,6 C 17,2 C 71 % 0 lf 998,1 hPa 0,0 l/m 2 min 0 min 1101 W/m 33,8 km/h (5 Bft) 97,87 %
30.04.2018 14:12 15,5 C 21,7 C 17,8 C 72 % 0 lf 998,3 hPa 0,0 l/m 2 min 0 min 1067 W/m 29,3 km/h (5 Bft) 95,65 %
30.04.2018 14:14 15,7 C 21,1 C 17,8 C 72 % 0 lf 998,2 hPa 0,0 l/m 2 min 0 min 1071 W/m 38,3 km/h (5 Bft) 97,87 %
30.04.2018 14:16 15,7 C 18,3 C 17,2 C 71 % 0 lf 998,3 hPa 0,0 l/m 2 min 0 min 523 W/m 40,6 km/h (6 Bft) 95,74 %
30.04.2018 14:18 15,7 C 17,8 C 16,7 C 71 % 0 lf 998,3 hPa 0,0 l/m 0 min 0 min 334 W/m 47,3 km/h (6 Bft) 95,74 %
30.04.2018 14:20 15,7 C 18,9 C 16,7 C 72 % 0 lf 998,3 hPa 0,0 l/m 2 min 0 min 960 W/m 42,8 km/h (6 Bft) 97,87 %
30.04.2018 14:22 15,6 C 19,4 C 16,1 C 72 % 0 lf 998,4 hPa 0,0 l/m 2 min 0 min 868 W/m 47,3 km/h (6 Bft) 97,87 %
30.04.2018 14:24 15,6 C 20,0 C 16,1 C 72 % 0 lf 998,4 hPa 0,0 l/m 2 min 0 min 855 W/m 49,6 km/h (6 Bft) 97,87 %
30.04.2018 14:26 15,6 C 19,4 C 15,6 C 71 % 0 lf 998,5 hPa 0,0 l/m 2 min 0 min 886 W/m 33,8 km/h (5 Bft) 97,87 %
30.04.2018 14:28 15,6 C 19,4 C 16,1 C 73 % 0 lf 998,4 hPa 0,0 l/m 2 min 0 min 935 W/m 47,3 km/h (6 Bft) 100,00 %
30.04.2018 14:30 15,5 C 17,8 C 16,1 C 73 % 0 lf 998,4 hPa 0,0 l/m 2 min 0 min 965 W/m 33,8 km/h (5 Bft) 100,00 %
30.04.2018 14:32 15,4 C 16,7 C 15,6 C 72 % 0 lf 998,4 hPa 0,0 l/m 2 min 0 min 846 W/m 54,1 km/h (7 Bft) 95,74 %
30.04.2018 14:34 15,4 C 18,3 C 16,1 C 72 % 0 lf 998,4 hPa 0,0 l/m 2 min 0 min 566 W/m 40,6 km/h (6 Bft) 97,83 %
30.04.2018 14:36 15,3 C 20,0 C 16,7 C 73 % 0 lf 998,4 hPa 0,0 l/m 2 min 0 min 979 W/m 31,5 km/h (5 Bft) 97,87 %
30.04.2018 14:38 15,4 C 18,9 C 16,7 C 73 % 0 lf 998,5 hPa 0,0 l/m 2 min 0 min 905 W/m 40,6 km/h (6 Bft) 100,00 %
30.04.2018 14:40 15,4 C 20,6 C 16,7 C 73 % 0 lf 998,4 hPa 0,0 l/m 2 min 0 min 817 W/m 27,0 km/h (4 Bft) 97,87 %
30.04.2018 14:42 15,5 C 20,6 C 16,7 C 73 % 0 lf 998,4 hPa 0,0 l/m 2 min 0 min 896 W/m 33,8 km/h (5 Bft) 97,87 %
30.04.2018 14:44 15,5 C 20,0 C 16,7 C 71 % 0 lf 998,5 hPa 0,0 l/m 2 min 0 min 891 W/m 40,6 km/h (6 Bft) 100,00 %
30.04.2018 14:46 15,5 C 17,8 C 16,7 C 71 % 0 lf 998,4 hPa 0,0 l/m 2 min 0 min 661 W/m 45,1 km/h (6 Bft) 97,83 %
30.04.2018 14:48 15,5 C 16,7 C 16,1 C 71 % 0 lf 998,3 hPa 0,0 l/m 0 min 0 min 286 W/m 22,5 km/h (4 Bft) 100,00 %
30.04.2018 14:50 15,4 C 16,7 C 16,7 C 71 % 0 lf 998,4 hPa 0,0 l/m 2 min 0 min 392 W/m 45,1 km/h (6 Bft) 97,87 %
30.04.2018 14:52 15,3 C 15,6 C 16,1 C 71 % 0 lf 998,5 hPa 0,0 l/m 0 min 0 min 313 W/m 45,1 km/h (6 Bft) 100,00 %
30.04.2018 14:54 15,2 C 15,0 C 15,6 C 71 % 0 lf 998,4 hPa 0,0 l/m 0 min 0 min 196 W/m 33,8 km/h (5 Bft) 100,00 %
30.04.2018 14:56 15,1 C 14,4 C 14,4 C 71 % 0 lf 998,6 hPa 0,0 l/m 0 min 2 min 135 W/m 47,3 km/h (6 Bft) 100,00 %
30.04.2018 14:58 14,9 C 12,8 C 12,8 C 73 % 15 lf 998,7 hPa 0,0 l/m 0 min 2 min 89 W/m 31,5 km/h (5 Bft) 97,83 %
30.04.2018 15:00 14,8 C 10,6 C 10,6 C 74 % 15 lf 998,9 hPa 0,2 l/m 0 min 2 min 79 W/m 65,3 km/h (8 Bft) 100,00 %
30.04.2018 15:02 14,4 C 10,0 C 10,0 C 75 % 15 lf 999,0 hPa 0,4 l/m 0 min 2 min 112 W/m 40,6 km/h (6 Bft) 100,00 %
30.04.2018 15:04 14,2 C 10,0 C 10,0 C 77 % 15 lf 999,0 hPa 0,2 l/m 0 min 2 min 146 W/m 38,3 km/h (5 Bft) 100,00 %
30.04.2018 15:06 13,8 C 10,6 C 10,6 C 78 % 15 lf 999,0 hPa 0,0 l/m 0 min 2 min 179 W/m 36,0 km/h (5 Bft) 97,87 %
30.04.2018 15:08 13,6 C 10,6 C 11,1 C 79 % 15 lf 999,0 hPa 0,0 l/m 0 min 0 min 255 W/m 42,8 km/h (6 Bft) 100,00 %
30.04.2018 15:10 13,4 C 12,2 C 12,8 C 80 % 15 lf 999,1 hPa 0,0 l/m 2 min 0 min 379 W/m 29,3 km/h (5 Bft) 97,83 %
30.04.2018 15:12 13,3 C 12,8 C 13,3 C 81 % 15 lf 999,0 hPa 0,0 l/m 2 min 0 min 404 W/m 27,0 km/h (4 Bft) 100,00 %
30.04.2018 15:14 13,2 C 13,3 C 14,4 C 82 % 15 lf 999,1 hPa 0,0 l/m 2 min 0 min 492 W/m 24,8 km/h (4 Bft) 100,00 %
30.04.2018 15:16 13,2 C 13,9 C 14,4 C 83 % 15 lf 999,0 hPa 0,0 l/m 2 min 0 min 854 W/m 27,0 km/h (4 Bft) 97,87 %
30.04.2018 15:18 13,2 C 14,4 C 15,6 C 84 % 15 lf 999,1 hPa 0,0 l/m 2 min 0 min 926 W/m 20,3 km/h (4 Bft) 97,87 %
30.04.2018 15:20 13,3 C 15,6 C 16,1 C 85 % 15 lf 999,1 hPa 0,0 l/m 2 min 0 min 694 W/m 31,5 km/h (5 Bft) 100,00 %
30.04.2018 15:22 13,4 C 17,2 C 17,2 C 85 % 15 lf 999,0 hPa 0,0 l/m 2 min 0 min 845 W/m 20,3 km/h (4 Bft) 100,00 %
30.04.2018 15:24 13,6 C 16,1 C 16,7 C 86 % 15 lf 999,0 hPa 0,0 l/m 2 min 0 min 818 W/m 40,6 km/h (6 Bft) 100,00 %
30.04.2018 15:26 13,7 C 15,6 C 16,7 C 84 % 15 lf 999,1 hPa 0,0 l/m 2 min 0 min 789 W/m 18,0 km/h (3 Bft) 97,87 %
30.04.2018 15:28 13,8 C 15,6 C 16,1 C 84 % 15 lf 999,0 hPa 0,0 l/m 2 min 0 min 789 W/m 36,0 km/h (5 Bft) 97,87 %
30.04.2018 15:30 13,8 C 14,4 C 14,4 C 81 % 15 lf 998,9 hPa 0,0 l/m 2 min 0 min 731 W/m 51,8 km/h (7 Bft) 100,00 %
30.04.2018 15:32 13,9 C 15,0 C 13,3 C 76 % 14 lf 999,2 hPa 0,0 l/m 2 min 0 min 539 W/m 49,6 km/h (6 Bft) 100,00 %
30.04.2018 15:34 13,8 C 15,0 C 12,2 C 73 % 3 lf 999,0 hPa 0,0 l/m 2 min 0 min 394 W/m 60,8 km/h (7 Bft) 97,87 %
30.04.2018 15:36 13,8 C 15,0 C 12,2 C 71 % 0 lf 999,1 hPa 0,0 l/m 2 min 0 min 356 W/m 54,1 km/h (7 Bft) 97,87 %
30.04.2018 15:38 13,7 C 14,4 C 11,7 C 70 % 0 lf 999,4 hPa 0,0 l/m 0 min 0 min 322 W/m 45,1 km/h (6 Bft) 100,00 %
30.04.2018 15:40 13,7 C 14,4 C 11,7 C 71 % 0 lf 999,2 hPa 0,0 l/m 0 min 0 min 261 W/m 42,8 km/h (6 Bft) 97,87 %
30.04.2018 15:42 13,6 C 13,9 C 11,7 C 71 % 0 lf 999,3 hPa 0,0 l/m 0 min 0 min 228 W/m 40,6 km/h (6 Bft) 100,00 %
30.04.2018 15:44 13,6 C 13,9 C 11,1 C 70 % 0 lf 999,2 hPa 0,0 l/m 0 min 0 min 221 W/m 42,8 km/h (6 Bft) 97,83 %
30.04.2018 15:46 13,5 C 13,9 C 11,1 C 70 % 0 lf 999,3 hPa 0,0 l/m 0 min 0 min 217 W/m 49,6 km/h (6 Bft) 93,62 %
30.04.2018 15:48 13,4 C 13,3 C 10,6 C 70 % 0 lf 999,3 hPa 0,0 l/m 0 min 0 min 204 W/m 31,5 km/h (5 Bft) 97,87 %
30.04.2018 15:50 13,3 C 13,3 C 10,6 C 69 % 0 lf 999,3 hPa 0,0 l/m 0 min 0 min 184 W/m 38,3 km/h (5 Bft) 95,74 %
30.04.2018 15:52 13,2 C 13,3 C 10,6 C 70 % 0 lf 999,3 hPa 0,0 l/m 0 min 0 min 167 W/m 36,0 km/h (5 Bft) 95,74 %
30.04.2018 15:54 13,2 C 13,3 C 11,1 C 69 % 0 lf 999,3 hPa 0,0 l/m 0 min 0 min 161 W/m 33,8 km/h (5 Bft) 95,74 %
30.04.2018 15:56 13,1 C 13,3 C 11,7 C 70 % 0 lf 999,4 hPa 0,0 l/m 0 min 0 min 163 W/m 47,3 km/h (6 Bft) 95,65 %
30.04.2018 15:58 13,0 C 12,8 C 11,7 C 70 % 0 lf 999,5 hPa 0,0 l/m 0 min 0 min 171 W/m 42,8 km/h (6 Bft) 95,74 %
30.04.2018 16:00 12,9 C 12,8 C 11,7 C 70 % 0 lf 999,5 hPa 0,0 l/m 0 min 0 min 182 W/m 49,6 km/h (6 Bft) 93,62 %
30.04.2018 16:02 12,8 C 12,8 C 11,7 C 71 % 0 lf 999,5 hPa 0,0 l/m 0 min 0 min 194 W/m 42,8 km/h (6 Bft) 93,62 %
30.04.2018 16:04 12,7 C 12,8 C 12,2 C 71 % 0 lf 999,5 hPa 0,0 l/m 0 min 0 min 210 W/m 33,8 km/h (5 Bft) 95,74 %
30.04.2018 16:06 12,6 C 13,3 C 12,8 C 72 % 0 lf 999,5 hPa 0,0 l/m 0 min 0 min 227 W/m 18,0 km/h (3 Bft) 93,62 %
30.04.2018 16:08 12,6 C 13,3 C 12,8 C 72 % 0 lf 999,6 hPa 0,0 l/m 0 min 0 min 234 W/m 22,5 km/h (4 Bft) 91,30 %
30.04.2018 16:10 12,6 C 13,3 C 12,8 C 72 % 0 lf 999,5 hPa 0,0 l/m 0 min 0 min 197 W/m 22,5 km/h (4 Bft) 89,36 %
30.04.2018 16:12 12,6 C 13,3 C 12,8 C 73 % 0 lf 999,5 hPa 0,0 l/m 0 min 0 min 140 W/m 22,5 km/h (4 Bft) 93,62 %
30.04.2018 16:14 12,6 C 12,8 C 12,2 C 73 % 0 lf 999,5 hPa 0,0 l/m 0 min 0 min 111 W/m 27,0 km/h (4 Bft) 93,62 %
30.04.2018 16:16 12,6 C 12,8 C 12,2 C 73 % 0 lf 999,6 hPa 0,0 l/m 0 min 0 min 127 W/m 20,3 km/h (4 Bft) 93,62 %
30.04.2018 16:18 12,6 C 12,8 C 12,2 C 73 % 0 lf 999,6 hPa 0,0 l/m 0 min 0 min 134 W/m 33,8 km/h (5 Bft) 89,36 %
30.04.2018 16:20 12,5 C 12,8 C 12,2 C 72 % 0 lf 999,6 hPa 0,0 l/m 0 min 0 min 157 W/m 45,1 km/h (6 Bft) 91,30 %
30.04.2018 16:22 12,5 C 13,3 C 12,2 C 71 % 0 lf 999,6 hPa 0,0 l/m 0 min 0 min 192 W/m 27,0 km/h (4 Bft) 89,36 %
30.04.2018 16:24 12,5 C 13,3 C 12,8 C 72 % 0 lf 999,6 hPa 0,0 l/m 0 min 0 min 239 W/m 49,6 km/h (6 Bft) 91,49 %
30.04.2018 16:26 12,4 C 13,3 C 12,8 C 70 % 0 lf 999,7 hPa 0,0 l/m 0 min 0 min 305 W/m 54,1 km/h (7 Bft) 93,62 %
30.04.2018 16:28 12,4 C 13,9 C 13,3 C 71 % 0 lf 999,5 hPa 0,0 l/m 2 min 0 min 334 W/m 27,0 km/h (4 Bft) 93,62 %
30.04.2018 16:30 12,5 C 13,9 C 13,9 C 71 % 0 lf 999,5 hPa 0,0 l/m 0 min 0 min 295 W/m 31,5 km/h (5 Bft) 93,62 %
30.04.2018 16:32 12,5 C 13,9 C 13,9 C 71 % 0 lf 999,5 hPa 0,0 l/m 0 min 0 min 281 W/m 51,8 km/h (7 Bft) 91,30 %
30.04.2018 16:34 12,6 C 13,9 C 13,9 C 71 % 0 lf 999,5 hPa 0,0 l/m 2 min 0 min 573 W/m 42,8 km/h (6 Bft) 89,36 %
30.04.2018 16:36 12,7 C 14,4 C 15,0 C 71 % 0 lf 999,5 hPa 0,0 l/m 2 min 0 min 564 W/m 40,6 km/h (6 Bft) 91,49 %
30.04.2018 16:38 12,8 C 14,4 C 14,4 C 71 % 0 lf 999,4 hPa 0,0 l/m 2 min 0 min 564 W/m 42,8 km/h (6 Bft) 93,62 %
30.04.2018 16:40 12,8 C 14,4 C 15,0 C 71 % 0 lf 999,5 hPa 0,0 l/m 2 min 0 min 564 W/m 29,3 km/h (5 Bft) 93,62 %
30.04.2018 16:42 12,9 C 15,0 C 16,1 C 71 % 0 lf 999,5 hPa 0,0 l/m 2 min 0 min 564 W/m 31,5 km/h (5 Bft) 93,62 %
30.04.2018 16:44 13,1 C 14,4 C 15,6 C 71 % 0 lf 999,5 hPa 0,0 l/m 2 min 0 min 690 W/m 38,3 km/h (5 Bft) 93,48 %
30.04.2018 16:46 13,2 C 14,4 C 15,0 C 70 % 0 lf 999,4 hPa 0,0 l/m 2 min 0 min 465 W/m 36,0 km/h (5 Bft) 95,74 %
30.04.2018 16:48 13,3 C 14,4 C 15,0 C 69 % 0 lf 999,4 hPa 0,0 l/m 0 min 0 min 273 W/m 29,3 km/h (5 Bft) 93,62 %
30.04.2018 16:50 13,3 C 14,4 C 13,9 C 68 % 0 lf 999,4 hPa 0,0 l/m 0 min 0 min 257 W/m 47,3 km/h (6 Bft) 95,74 %
30.04.2018 16:52 13,3 C 14,4 C 14,4 C 68 % 0 lf 999,4 hPa 0,0 l/m 2 min 0 min 334 W/m 47,3 km/h (6 Bft) 93,62 %
30.04.2018 16:54 13,3 C 14,4 C 14,4 C 68 % 0 lf 999,4 hPa 0,0 l/m 2 min 0 min 344 W/m 47,3 km/h (6 Bft) 93,48 %
30.04.2018 16:56 13,3 C 15,0 C 15,0 C 68 % 0 lf 999,3 hPa 0,0 l/m 2 min 0 min 318 W/m 31,5 km/h (5 Bft) 95,74 %
30.04.2018 16:58 13,4 C 14,4 C 15,0 C 67 % 0 lf 999,4 hPa 0,0 l/m 2 min 0 min 316 W/m 42,8 km/h (6 Bft) 93,62 %
30.04.2018 17:00 13,4 C 13,9 C 13,9 C 67 % 0 lf 999,4 hPa 0,0 l/m 0 min 0 min 249 W/m 42,8 km/h (6 Bft) 95,74 %
30.04.2018 17:02 13,4 C 13,9 C 13,9 C 67 % 0 lf 999,4 hPa 0,0 l/m 0 min 0 min 216 W/m 47,3 km/h (6 Bft) 97,87 %
30.04.2018 17:04 13,3 C 13,9 C 13,3 C 67 % 0 lf 999,4 hPa 0,0 l/m 0 min 0 min 211 W/m 20,3 km/h (4 Bft) 93,62 %
30.04.2018 17:06 13,3 C 14,4 C 13,9 C 68 % 0 lf 999,4 hPa 0,0 l/m 0 min 0 min 223 W/m 27,0 km/h (4 Bft) 97,83 %
30.04.2018 17:08 13,3 C 14,4 C 13,9 C 67 % 0 lf 999,5 hPa 0,0 l/m 0 min 0 min 217 W/m 29,3 km/h (5 Bft) 95,74 %
30.04.2018 17:10 13,3 C 14,4 C 13,9 C 68 % 0 lf 999,3 hPa 0,0 l/m 0 min 0 min 203 W/m 29,3 km/h (5 Bft) 100,00 %
30.04.2018 17:12 13,3 C 14,4 C 13,9 C 67 % 0 lf 999,3 hPa 0,0 l/m 0 min 0 min 253 W/m 36,0 km/h (5 Bft) 100,00 %
30.04.2018 17:14 13,4 C 14,4 C 13,9 C 67 % 0 lf 999,3 hPa 0,0 l/m 0 min 0 min 247 W/m 38,3 km/h (5 Bft) 100,00 %
30.04.2018 17:16 13,4 C 14,4 C 14,4 C 66 % 0 lf 999,3 hPa 0,0 l/m 0 min 0 min 255 W/m 22,5 km/h (4 Bft) 95,74 %
30.04.2018 17:18 13,4 C 15,0 C 14,4 C 66 % 0 lf 999,4 hPa 0,0 l/m 0 min 0 min 255 W/m 33,8 km/h (5 Bft) 100,00 %
30.04.2018 17:20 13,5 C 14,4 C 14,4 C 65 % 0 lf 999,3 hPa 0,0 l/m 2 min 0 min 271 W/m 42,8 km/h (6 Bft) 100,00 %
30.04.2018 17:22 13,5 C 14,4 C 13,9 C 65 % 0 lf 999,4 hPa 0,0 l/m 2 min 0 min 316 W/m 45,1 km/h (6 Bft) 100,00 %
30.04.2018 17:24 13,5 C 14,4 C 13,9 C 65 % 0 lf 999,4 hPa 0,0 l/m 2 min 0 min 310 W/m 47,3 km/h (6 Bft) 100,00 %
30.04.2018 17:26 13,6 C 14,4 C 14,4 C 66 % 0 lf 999,3 hPa 0,0 l/m 2 min 0 min 275 W/m 31,5 km/h (5 Bft) 100,00 %
30.04.2018 17:28 13,6 C 14,4 C 14,4 C 66 % 0 lf 999,4 hPa 0,0 l/m 2 min 0 min 250 W/m 40,6 km/h (6 Bft) 100,00 %
30.04.2018 17:30 13,6 C 14,4 C 14,4 C 65 % 0 lf 999,4 hPa 0,0 l/m 2 min 0 min 285 W/m 45,1 km/h (6 Bft) 97,83 %
30.04.2018 17:32 13,6 C 14,4 C 14,4 C 66 % 0 lf 999,3 hPa 0,0 l/m 2 min 0 min 276 W/m 29,3 km/h (5 Bft) 95,74 %
30.04.2018 17:34 13,6 C 13,9 C 13,9 C 65 % 0 lf 999,3 hPa 0,0 l/m 0 min 0 min 189 W/m 63,1 km/h (8 Bft) 97,87 %
30.04.2018 17:38 13,6 C 14,4 C 13,9 C 64 % 0 lf 999,3 hPa 0,0 l/m 4 min 0 min 385 W/m 56,3 km/h (7 Bft) 98,94 %
30.04.2018 17:40 13,6 C 13,9 C 13,9 C 63 % 0 lf 999,3 hPa 0,0 l/m 2 min 0 min 359 W/m 49,6 km/h (6 Bft) 100,00 %
30.04.2018 17:42 13,6 C 13,9 C 13,3 C 63 % 0 lf 999,2 hPa 0,0 l/m 2 min 0 min 341 W/m 40,6 km/h (6 Bft) 97,83 %
30.04.2018 17:44 13,6 C 13,9 C 13,3 C 63 % 0 lf 999,3 hPa 0,0 l/m 2 min 0 min 352 W/m 33,8 km/h (5 Bft) 100,00 %
30.04.2018 17:46 13,6 C 14,4 C 13,3 C 63 % 0 lf 999,3 hPa 0,0 l/m 2 min 0 min 444 W/m 45,1 km/h (6 Bft) 97,87 %
30.04.2018 17:48 13,7 C 14,4 C 13,9 C 63 % 0 lf 999,4 hPa 0,0 l/m 2 min 0 min 534 W/m 49,6 km/h (6 Bft) 95,74 %
30.04.2018 17:50 13,7 C 14,4 C 13,9 C 63 % 0 lf 999,2 hPa 0,0 l/m 2 min 0 min 519 W/m 33,8 km/h (5 Bft) 100,00 %
30.04.2018 17:52 13,8 C 14,4 C 13,9 C 63 % 0 lf 999,2 hPa 0,0 l/m 2 min 0 min 397 W/m 36,0 km/h (5 Bft) 97,87 %
30.04.2018 17:54 13,8 C 14,4 C 13,9 C 63 % 0 lf 999,2 hPa 0,0 l/m 2 min 0 min 242 W/m 49,6 km/h (6 Bft) 97,87 %
30.04.2018 17:56 13,8 C 14,4 C 14,4 C 63 % 0 lf 999,3 hPa 0,0 l/m 2 min 0 min 248 W/m 45,1 km/h (6 Bft) 97,83 %
30.04.2018 17:58 13,8 C 15,0 C 15,0 C 63 % 0 lf 999,2 hPa 0,0 l/m 2 min 0 min 248 W/m 29,3 km/h (5 Bft) 97,87 %
30.04.2018 18:00 13,9 C 14,4 C 15,0 C 63 % 0 lf 999,2 hPa 0,0 l/m 2 min 0 min 511 W/m 31,5 km/h (5 Bft) 95,74 %
30.04.2018 18:02 13,9 C 14,4 C 13,9 C 63 % 0 lf 999,2 hPa 0,0 l/m 2 min 0 min 309 W/m 31,5 km/h (5 Bft) 100,00 %
30.04.2018 18:04 13,8 C 13,9 C 13,3 C 62 % 0 lf 999,3 hPa 0,0 l/m 0 min 0 min 85 W/m 40,6 km/h (6 Bft) 95,74 %
30.04.2018 18:08 13,6 C 13,3 C 12,8 C 63 % 0 lf 999,2 hPa 0,0 l/m 0 min 0 min 81 W/m 38,3 km/h (5 Bft) 97,87 %
30.04.2018 18:10 13,5 C 12,8 C 12,2 C 63 % 0 lf 999,2 hPa 0,0 l/m 0 min 0 min 87 W/m 42,8 km/h (6 Bft) 97,87 %
30.04.2018 18:12 13,4 C 12,8 C 12,2 C 63 % 0 lf 999,2 hPa 0,0 l/m 0 min 0 min 88 W/m 36,0 km/h (5 Bft) 97,87 %
30.04.2018 18:14 13,3 C 12,8 C 12,2 C 64 % 0 lf 999,1 hPa 0,0 l/m 0 min 0 min 105 W/m 31,5 km/h (5 Bft) 97,87 %
30.04.2018 18:16 13,2 C 12,8 C 12,8 C 64 % 0 lf 999,2 hPa 0,0 l/m 0 min 0 min 140 W/m 33,8 km/h (5 Bft) 97,87 %
30.04.2018 18:18 13,2 C 13,3 C 12,8 C 65 % 0 lf 999,1 hPa 0,0 l/m 0 min 0 min 157 W/m 31,5 km/h (5 Bft) 95,74 %
30.04.2018 18:20 13,2 C 13,3 C 12,8 C 65 % 0 lf 999,1 hPa 0,0 l/m 0 min 0 min 163 W/m 47,3 km/h (6 Bft) 91,49 %
30.04.2018 18:22 13,1 C 13,3 C 12,8 C 65 % 0 lf 999,1 hPa 0,0 l/m 0 min 0 min 149 W/m 36,0 km/h (5 Bft) 97,87 %
30.04.2018 18:24 13,1 C 13,3 C 12,8 C 65 % 0 lf 999,1 hPa 0,0 l/m 0 min 0 min 148 W/m 42,8 km/h (6 Bft) 97,87 %
30.04.2018 18:26 13,1 C 12,8 C 12,8 C 65 % 0 lf 999,0 hPa 0,0 l/m 0 min 0 min 128 W/m 29,3 km/h (5 Bft) 97,87 %
30.04.2018 18:28 13,1 C 12,8 C 12,8 C 65 % 0 lf 999,0 hPa 0,0 l/m 0 min 0 min 117 W/m 40,6 km/h (6 Bft) 97,83 %
30.04.2018 18:30 13,0 C 12,8 C 12,8 C 64 % 0 lf 998,9 hPa 0,0 l/m 0 min 0 min 130 W/m 40,6 km/h (6 Bft) 95,74 %
30.04.2018 18:32 13,0 C 13,3 C 12,8 C 65 % 0 lf 999,0 hPa 0,0 l/m 0 min 0 min 130 W/m 31,5 km/h (5 Bft) 95,74 %
30.04.2018 18:34 12,9 C 12,8 C 12,8 C 65 % 0 lf 998,9 hPa 0,0 l/m 0 min 0 min 124 W/m 22,5 km/h (4 Bft) 100,00 %
30.04.2018 18:36 12,9 C 13,3 C 12,8 C 66 % 0 lf 999,0 hPa 0,0 l/m 0 min 0 min 102 W/m 24,8 km/h (4 Bft) 100,00 %
30.04.2018 18:38 12,9 C 12,8 C 12,2 C 66 % 0 lf 999,0 hPa 0,0 l/m 0 min 0 min 81 W/m 22,5 km/h (4 Bft) 97,87 %
30.04.2018 18:40 12,9 C 12,8 C 12,2 C 65 % 0 lf 999,0 hPa 0,0 l/m 0 min 0 min 65 W/m 36,0 km/h (5 Bft) 100,00 %
30.04.2018 18:42 12,9 C 12,2 C 11,1 C 66 % 3 lf 999,2 hPa 0,0 l/m 0 min 2 min 65 W/m 40,6 km/h (6 Bft) 97,87 %
30.04.2018 18:44 12,8 C 11,7 C 10,0 C 67 % 15 lf 999,3 hPa 0,0 l/m 0 min 2 min 54 W/m 47,3 km/h (6 Bft) 97,87 %
30.04.2018 18:46 12,7 C 8,9 C 8,9 C 70 % 15 lf 999,5 hPa 0,0 l/m 0 min 2 min 46 W/m 60,8 km/h (7 Bft) 100,00 %
30.04.2018 18:48 12,4 C 8,9 C 8,3 C 71 % 15 lf 999,4 hPa 0,0 l/m 0 min 2 min 73 W/m 45,1 km/h (6 Bft) 97,87 %
30.04.2018 18:50 12,2 C 8,9 C 8,3 C 73 % 15 lf 999,4 hPa 0,0 l/m 0 min 2 min 113 W/m 33,8 km/h (5 Bft) 97,87 %
30.04.2018 18:52 12,1 C 8,9 C 8,9 C 75 % 15 lf 999,3 hPa 0,0 l/m 0 min 2 min 127 W/m 29,3 km/h (5 Bft) 95,65 %
30.04.2018 18:54 11,9 C 8,9 C 8,9 C 75 % 15 lf 999,3 hPa 0,0 l/m 0 min 0 min 129 W/m 36,0 km/h (5 Bft) 97,87 %
30.04.2018 18:56 11,7 C 9,4 C 8,3 C 75 % 10 lf 999,3 hPa 0,0 l/m 0 min 0 min 124 W/m 36,0 km/h (5 Bft) 97,87 %
30.04.2018 18:58 11,6 C 9,4 C 8,9 C 76 % 3 lf 999,1 hPa 0,0 l/m 0 min 2 min 120 W/m 49,6 km/h (6 Bft) 93,62 %
30.04.2018 19:00 11,5 C 10,0 C 8,9 C 76 % 0 lf 999,3 hPa 0,0 l/m 0 min 2 min 105 W/m 47,3 km/h (6 Bft) 97,87 %
30.04.2018 19:02 11,4 C 10,6 C 8,9 C 75 % 0 lf 999,3 hPa 0,0 l/m 0 min 2 min 95 W/m 51,8 km/h (7 Bft) 97,87 %
30.04.2018 19:04 11,4 C 11,1 C 8,9 C 74 % 0 lf 999,2 hPa 0,0 l/m 0 min 0 min 88 W/m 47,3 km/h (6 Bft) 97,83 %
30.04.2018 19:08 11,3 C 11,1 C 9,4 C 73 % 0 lf 999,3 hPa 0,0 l/m 0 min 0 min 62 W/m 51,8 km/h (7 Bft) 94,68 %
30.04.2018 19:10 11,3 C 11,1 C 9,4 C 72 % 0 lf 999,4 hPa 0,0 l/m 0 min 0 min 62 W/m 38,3 km/h (5 Bft) 91,49 %
30.04.2018 19:12 11,3 C 11,1 C 9,4 C 71 % 0 lf 999,1 hPa 0,0 l/m 0 min 0 min 59 W/m 36,0 km/h (5 Bft) 95,74 %
30.04.2018 19:14 11,3 C 11,1 C 9,4 C 72 % 0 lf 999,3 hPa 0,0 l/m 0 min 0 min 70 W/m 38,3 km/h (5 Bft) 95,74 %
30.04.2018 19:16 11,3 C 11,1 C 10,0 C 71 % 0 lf 999,2 hPa 0,0 l/m 0 min 0 min 87 W/m 45,1 km/h (6 Bft) 91,49 %
30.04.2018 19:18 11,3 C 11,1 C 10,6 C 71 % 0 lf 999,1 hPa 0,0 l/m 0 min 0 min 83 W/m 42,8 km/h (6 Bft) 95,74 %
30.04.2018 19:20 11,3 C 11,1 C 10,6 C 70 % 0 lf 999,2 hPa 0,0 l/m 0 min 0 min 74 W/m 29,3 km/h (5 Bft) 93,62 %
30.04.2018 19:22 11,3 C 11,1 C 10,6 C 70 % 0 lf 999,2 hPa 0,0 l/m 0 min 0 min 58 W/m 38,3 km/h (5 Bft) 95,74 %
30.04.2018 19:24 11,3 C 11,1 C 10,6 C 69 % 0 lf 999,2 hPa 0,0 l/m 0 min 0 min 41 W/m 51,8 km/h (7 Bft) 91,49 %
30.04.2018 19:26 11,3 C 11,1 C 10,0 C 68 % 0 lf 999,1 hPa 0,0 l/m 0 min 0 min 30 W/m 45,1 km/h (6 Bft) 91,30 %
30.04.2018 19:28 11,3 C 11,1 C 10,0 C 68 % 1 lf 999,1 hPa 0,0 l/m 0 min 0 min 27 W/m 38,3 km/h (5 Bft) 89,36 %
30.04.2018 19:30 11,3 C 10,6 C 10,0 C 68 % 0 lf 999,0 hPa 0,0 l/m 0 min 2 min 30 W/m 38,3 km/h (5 Bft) 93,62 %
30.04.2018 19:32 11,3 C 10,6 C 10,0 C 69 % 0 lf 999,2 hPa 0,0 l/m 0 min 2 min 29 W/m 31,5 km/h (5 Bft) 93,62 %
30.04.2018 19:34 11,2 C 10,6 C 9,4 C 69 % 0 lf 999,1 hPa 0,0 l/m 0 min 0 min 34 W/m 29,3 km/h (5 Bft) 91,49 %
30.04.2018 19:36 11,2 C 10,6 C 9,4 C 70 % 0 lf 999,1 hPa 0,0 l/m 0 min 0 min 32 W/m 36,0 km/h (5 Bft) 91,49 %
30.04.2018 19:38 11,2 C 10,6 C 10,0 C 70 % 0 lf 999,1 hPa 0,0 l/m 0 min 0 min 26 W/m 40,6 km/h (6 Bft) 93,48 %
30.04.2018 19:40 11,2 C 10,6 C 10,0 C 70 % 0 lf 999,2 hPa 0,0 l/m 0 min 0 min 24 W/m 42,8 km/h (6 Bft) 95,74 %
30.04.2018 19:42 11,1 C 10,6 C 10,0 C 70 % 0 lf 999,2 hPa 0,0 l/m 0 min 0 min 18 W/m 31,5 km/h (5 Bft) 95,74 %
30.04.2018 19:44 11,1 C 10,6 C 9,4 C 70 % 0 lf 999,1 hPa 0,0 l/m 0 min 0 min 16 W/m 31,5 km/h (5 Bft) 93,62 %
30.04.2018 19:46 11,1 C 10,6 C 9,4 C 71 % 0 lf 999,1 hPa 0,0 l/m 0 min 0 min 12 W/m 29,3 km/h (5 Bft) 93,75 %
30.04.2018 19:48 11,1 C 10,6 C 9,4 C 71 % 0 lf 999,0 hPa 0,0 l/m 0 min 0 min 12 W/m 27,0 km/h (4 Bft) 93,62 %
30.04.2018 19:50 11,0 C 10,6 C 9,4 C 71 % 0 lf 999,1 hPa 0,0 l/m 0 min 0 min 12 W/m 40,6 km/h (6 Bft) 93,48 %
30.04.2018 19:52 11,0 C 10,6 C 9,4 C 71 % 0 lf 999,0 hPa 0,0 l/m 0 min 0 min 11 W/m 31,5 km/h (5 Bft) 95,74 %
30.04.2018 19:54 10,9 C 10,6 C 9,4 C 71 % 0 lf 999,0 hPa 0,0 l/m 0 min 0 min 11 W/m 31,5 km/h (5 Bft) 91,49 %
30.04.2018 19:56 10,9 C 10,6 C 9,4 C 71 % 0 lf 999,0 hPa 0,0 l/m 0 min 0 min 9 W/m 42,8 km/h (6 Bft) 91,49 %
30.04.2018 19:58 10,9 C 10,6 C 9,4 C 71 % 0 lf 999,1 hPa 0,0 l/m 0 min 0 min 9 W/m 42,8 km/h (6 Bft) 93,62 %
30.04.2018 20:00 10,9 C 10,6 C 9,4 C 70 % 0 lf 999,2 hPa 0,0 l/m 0 min 0 min 9 W/m 33,8 km/h (5 Bft) 93,48 %
30.04.2018 20:02 10,9 C 10,6 C 9,4 C 70 % 0 lf 999,0 hPa 0,0 l/m 0 min 0 min 10 W/m 69,8 km/h (8 Bft) 91,67 %
30.04.2018 20:04 10,8 C 10,6 C 9,4 C 69 % 0 lf 999,0 hPa 0,0 l/m 0 min 0 min 11 W/m 56,3 km/h (7 Bft) 91,49 %
30.04.2018 20:08 10,8 C 10,6 C 9,4 C 69 % 0 lf 999,0 hPa 0,0 l/m 0 min 0 min 11 W/m 60,8 km/h (7 Bft) 93,62 %
30.04.2018 20:10 10,8 C 10,6 C 9,4 C 69 % 0 lf 999,1 hPa 0,0 l/m 0 min 0 min 11 W/m 49,6 km/h (6 Bft) 95,74 %
30.04.2018 20:12 10,7 C 10,6 C 9,4 C 69 % 0 lf 999,1 hPa 0,0 l/m 0 min 0 min 11 W/m 56,3 km/h (7 Bft) 95,65 %
30.04.2018 20:14 10,7 C 10,0 C 9,4 C 69 % 0 lf 999,0 hPa 0,0 l/m 0 min 0 min 9 W/m 49,6 km/h (6 Bft) 95,74 %
30.04.2018 20:16 10,7 C 10,0 C 9,4 C 69 % 0 lf 999,0 hPa 0,0 l/m 0 min 2 min 9 W/m 58,6 km/h (7 Bft) 97,87 %
30.04.2018 20:18 10,6 C 10,0 C 9,4 C 69 % 0 lf 999,0 hPa 0,0 l/m 0 min 0 min 9 W/m 40,6 km/h (6 Bft) 95,74 %
30.04.2018 20:20 10,6 C 10,0 C 9,4 C 68 % 0 lf 999,1 hPa 0,0 l/m 0 min 0 min 9 W/m 67,6 km/h (8 Bft) 95,74 %
30.04.2018 20:22 10,6 C 10,0 C 8,9 C 68 % 1 lf 999,1 hPa 0,0 l/m 0 min 2 min 9 W/m 42,8 km/h (6 Bft) 95,74 %
30.04.2018 20:24 10,6 C 9,4 C 8,9 C 69 % 1 lf 999,1 hPa 0,0 l/m 0 min 2 min 9 W/m 42,8 km/h (6 Bft) 95,65 %
30.04.2018 20:26 10,5 C 9,4 C 8,3 C 69 % 0 lf 999,1 hPa 0,0 l/m 0 min 2 min 7 W/m 42,8 km/h (6 Bft) 97,87 %
30.04.2018 20:28 10,4 C 9,4 C 8,3 C 69 % 0 lf 999,1 hPa 0,0 l/m 0 min 2 min 5 W/m 38,3 km/h (5 Bft) 97,87 %
30.04.2018 20:30 10,4 C 10,0 C 8,3 C 69 % 0 lf 999,1 hPa 0,0 l/m 0 min 2 min 4 W/m 38,3 km/h (5 Bft) 100,00 %
30.04.2018 20:32 10,3 C 10,0 C 8,3 C 69 % 0 lf 999,1 hPa 0,0 l/m 0 min 0 min 0 W/m 38,3 km/h (5 Bft) 100,00 %
30.04.2018 20:34 10,3 C 9,4 C 8,3 C 70 % 3 lf 999,1 hPa 0,0 l/m 0 min 2 min 5 W/m 29,3 km/h (5 Bft) 100,00 %
30.04.2018 20:36 10,3 C 9,4 C 7,8 C 70 % 5 lf 999,2 hPa 0,0 l/m 0 min 2 min 4 W/m 51,8 km/h (7 Bft) 97,83 %
30.04.2018 20:38 10,2 C 8,9 C 7,2 C 72 % 6 lf 999,1 hPa 0,0 l/m 0 min 2 min 0 W/m 54,1 km/h (7 Bft) 100,00 %
30.04.2018 20:40 10,2 C 8,9 C 7,2 C 72 % 2 lf 999,1 hPa 0,0 l/m 0 min 2 min 5 W/m 47,3 km/h (6 Bft) 97,87 %
30.04.2018 20:42 10,1 C 8,9 C 7,2 C 73 % 2 lf 999,1 hPa 0,0 l/m 0 min 2 min 1 W/m 56,3 km/h (7 Bft) 100,00 %
30.04.2018 20:44 10,0 C 8,9 C 7,8 C 72 % 1 lf 999,2 hPa 0,0 l/m 0 min 2 min 0 W/m 69,8 km/h (8 Bft) 100,00 %
30.04.2018 20:46 9,9 C 8,9 C 7,8 C 72 % 0 lf 999,2 hPa 0,0 l/m 0 min 2 min 0 W/m 31,5 km/h (5 Bft) 100,00 %
30.04.2018 20:48 9,8 C 8,9 C 7,2 C 73 % 3 lf 999,3 hPa 0,0 l/m 0 min 2 min 0 W/m 38,3 km/h (5 Bft) 97,87 %
30.04.2018 20:50 9,8 C 8,9 C 7,2 C 73 % 3 lf 999,3 hPa 0,0 l/m 0 min 2 min 0 W/m 33,8 km/h (5 Bft) 100,00 %
30.04.2018 20:52 9,7 C 8,9 C 7,2 C 73 % 2 lf 999,3 hPa 0,0 l/m 0 min 2 min 0 W/m 33,8 km/h (5 Bft) 100,00 %
30.04.2018 20:54 9,7 C 8,3 C 7,2 C 73 % 3 lf 999,3 hPa 0,0 l/m 0 min 2 min 0 W/m 29,3 km/h (5 Bft) 100,00 %
30.04.2018 20:56 9,7 C 8,3 C 7,2 C 74 % 1 lf 999,3 hPa 0,0 l/m 0 min 2 min 0 W/m 31,5 km/h (5 Bft) 100,00 %
30.04.2018 20:58 9,6 C 8,3 C 7,2 C 74 % 2 lf 999,4 hPa 0,0 l/m 0 min 2 min 0 W/m 40,6 km/h (6 Bft) 100,00 %
30.04.2018 21:00 9,6 C 8,3 C 7,2 C 74 % 4 lf 999,4 hPa 0,0 l/m 0 min 2 min 0 W/m 29,3 km/h (5 Bft) 97,87 %
30.04.2018 21:02 9,5 C 7,8 C 7,2 C 74 % 6 lf 999,4 hPa 0,0 l/m 0 min 2 min 0 W/m 40,6 km/h (6 Bft) 100,00 %
30.04.2018 21:04 9,4 C 7,8 C 6,1 C 74 % 13 lf 999,5 hPa 0,0 l/m 0 min 2 min 0 W/m 49,6 km/h (6 Bft) 97,87 %
30.04.2018 21:06 9,3 C 7,8 C 6,1 C 75 % 15 lf 999,5 hPa 0,0 l/m 0 min 2 min 0 W/m 42,8 km/h (6 Bft) 100,00 %
30.04.2018 21:08 9,2 C 7,8 C 6,1 C 75 % 15 lf 999,5 hPa 0,0 l/m 0 min 2 min 0 W/m 40,6 km/h (6 Bft) 97,87 %
30.04.2018 21:10 9,1 C 7,2 C 6,1 C 76 % 15 lf 999,6 hPa 0,0 l/m 0 min 2 min 0 W/m 38,3 km/h (5 Bft) 100,00 %
30.04.2018 21:12 9,0 C 7,2 C 5,6 C 77 % 15 lf 999,5 hPa 0,0 l/m 0 min 2 min 0 W/m 38,3 km/h (5 Bft) 97,87 %
30.04.2018 21:14 8,9 C 7,2 C 5,6 C 77 % 15 lf 999,6 hPa 0,0 l/m 0 min 2 min 0 W/m 47,3 km/h (6 Bft) 100,00 %
30.04.2018 21:16 8,8 C 7,2 C 5,6 C 78 % 15 lf 999,6 hPa 0,0 l/m 0 min 2 min 0 W/m 20,3 km/h (4 Bft) 95,83 %
30.04.2018 21:18 8,7 C 7,2 C 5,6 C 79 % 15 lf 999,6 hPa 0,0 l/m 0 min 2 min 0 W/m 20,3 km/h (4 Bft) 97,87 %
30.04.2018 21:20 8,7 C 6,7 C 6,1 C 79 % 15 lf 999,6 hPa 0,0 l/m 0 min 2 min 0 W/m 20,3 km/h (4 Bft) 100,00 %
30.04.2018 21:22 8,7 C 6,7 C 6,1 C 80 % 15 lf 999,6 hPa 0,0 l/m 0 min 2 min 0 W/m 18,0 km/h (3 Bft) 100,00 %
30.04.2018 21:24 8,6 C 6,7 C 6,1 C 81 % 15 lf 999,6 hPa 0,0 l/m 0 min 2 min 0 W/m 27,0 km/h (4 Bft) 100,00 %
30.04.2018 21:26 8,6 C 6,7 C 5,6 C 82 % 15 lf 999,6 hPa 0,0 l/m 0 min 2 min 0 W/m 29,3 km/h (5 Bft) 97,87 %
30.04.2018 21:28 8,5 C 6,7 C 5,6 C 82 % 15 lf 999,7 hPa 0,0 l/m 0 min 2 min 0 W/m 20,3 km/h (4 Bft) 97,87 %
30.04.2018 21:30 8,4 C 6,1 C 6,1 C 83 % 15 lf 999,7 hPa 0,0 l/m 0 min 2 min 0 W/m 22,5 km/h (4 Bft) 100,00 %
30.04.2018 21:32 8,4 C 6,1 C 5,6 C 83 % 15 lf 999,7 hPa 0,0 l/m 0 min 2 min 0 W/m 29,3 km/h (5 Bft) 100,00 %
30.04.2018 21:34 8,3 C 6,1 C 5,6 C 83 % 15 lf 999,7 hPa 0,0 l/m 0 min 2 min 0 W/m 36,0 km/h (5 Bft) 100,00 %
30.04.2018 21:36 8,2 C 6,1 C 5,6 C 84 % 15 lf 999,7 hPa 0,0 l/m 0 min 2 min 0 W/m 33,8 km/h (5 Bft) 100,00 %
30.04.2018 21:38 8,1 C 6,1 C 5,6 C 84 % 15 lf 999,8 hPa 0,0 l/m 0 min 2 min 0 W/m 38,3 km/h (5 Bft) 97,87 %
30.04.2018 21:40 8,0 C 6,1 C 5,6 C 84 % 15 lf 999,7 hPa 0,0 l/m 0 min 2 min 0 W/m 33,8 km/h (5 Bft) 97,87 %
30.04.2018 21:42 7,9 C 6,1 C 5,6 C 85 % 15 lf 999,7 hPa 0,0 l/m 0 min 2 min 0 W/m 33,8 km/h (5 Bft) 97,87 %
30.04.2018 21:44 7,8 C 6,1 C 5,0 C 85 % 15 lf 999,7 hPa 0,0 l/m 0 min 2 min 0 W/m 47,3 km/h (6 Bft) 91,49 %
30.04.2018 21:46 7,7 C 5,6 C 5,6 C 85 % 15 lf 999,7 hPa 0,0 l/m 0 min 2 min 0 W/m 49,6 km/h (6 Bft) 95,65 %
30.04.2018 21:48 7,7 C 5,6 C 5,0 C 85 % 15 lf 999,8 hPa 0,0 l/m 0 min 2 min 0 W/m 47,3 km/h (6 Bft) 97,87 %
30.04.2018 21:50 7,6 C 5,6 C 5,0 C 85 % 15 lf 999,7 hPa 0,0 l/m 0 min 2 min 0 W/m 36,0 km/h (5 Bft) 97,87 %
30.04.2018 21:52 7,5 C 5,6 C 5,0 C 85 % 15 lf 999,7 hPa 0,2 l/m 0 min 2 min 0 W/m 51,8 km/h (7 Bft) 91,49 %
30.04.2018 21:54 7,4 C 5,6 C 5,0 C 85 % 15 lf 999,8 hPa 0,0 l/m 0 min 2 min 0 W/m 63,1 km/h (8 Bft) 95,74 %
30.04.2018 21:56 7,3 C 5,6 C 5,0 C 84 % 15 lf 999,8 hPa 0,0 l/m 0 min 2 min 0 W/m 69,8 km/h (8 Bft) 95,65 %
30.04.2018 21:58 7,3 C 5,6 C 5,0 C 84 % 15 lf 999,8 hPa 0,0 l/m 0 min 2 min 0 W/m 58,6 km/h (7 Bft) 95,74 %
30.04.2018 22:00 7,2 C 5,6 C 5,0 C 84 % 15 lf 999,6 hPa 0,0 l/m 0 min 2 min 0 W/m 56,3 km/h (7 Bft) 95,74 %
30.04.2018 22:02 7,2 C 5,6 C 5,0 C 84 % 15 lf 999,7 hPa 0,0 l/m 0 min 2 min 0 W/m 27,0 km/h (4 Bft) 82,98 %
30.04.2018 22:04 7,2 C 5,6 C 5,0 C 84 % 15 lf 999,7 hPa 0,0 l/m 0 min 2 min 0 W/m 60,8 km/h (7 Bft) 93,62 %
30.04.2018 22:08 7,2 C 5,6 C 5,0 C 85 % 15 lf 999,8 hPa 0,0 l/m 0 min 4 min 0 W/m 47,3 km/h (6 Bft) 95,70 %
30.04.2018 22:10 7,2 C 5,6 C 5,0 C 85 % 15 lf 999,8 hPa 0,0 l/m 0 min 2 min 0 W/m 40,6 km/h (6 Bft) 93,62 %
30.04.2018 22:12 7,2 C 5,6 C 5,0 C 85 % 15 lf 999,8 hPa 0,0 l/m 0 min 2 min 0 W/m 49,6 km/h (6 Bft) 95,74 %
30.04.2018 22:14 7,1 C 5,6 C 5,0 C 85 % 15 lf 999,8 hPa 0,0 l/m 0 min 2 min 0 W/m 42,8 km/h (6 Bft) 91,49 %
30.04.2018 22:16 7,1 C 5,6 C 5,0 C 85 % 15 lf 999,9 hPa 0,0 l/m 0 min 2 min 0 W/m 63,1 km/h (8 Bft) 93,62 %
30.04.2018 22:18 7,1 C 5,6 C 5,0 C 85 % 15 lf 999,8 hPa 0,0 l/m 0 min 2 min 0 W/m 51,8 km/h (7 Bft) 89,58 %
30.04.2018 22:20 7,1 C 5,6 C 5,0 C 85 % 15 lf 999,8 hPa 0,0 l/m 0 min 2 min 0 W/m 47,3 km/h (6 Bft) 93,48 %
30.04.2018 22:22 7,1 C 5,6 C 5,0 C 85 % 15 lf 999,8 hPa 0,0 l/m 0 min 2 min 0 W/m 45,1 km/h (6 Bft) 93,62 %
30.04.2018 22:24 7,1 C 5,6 C 5,0 C 85 % 15 lf 999,8 hPa 0,0 l/m 0 min 2 min 0 W/m 38,3 km/h (5 Bft) 93,62 %
30.04.2018 22:26 7,0 C 5,6 C 5,0 C 85 % 15 lf 999,8 hPa 0,0 l/m 0 min 2 min 0 W/m 45,1 km/h (6 Bft) 93,62 %
30.04.2018 22:28 7,0 C 5,6 C 5,0 C 85 % 15 lf 999,9 hPa 0,0 l/m 0 min 2 min 0 W/m 47,3 km/h (6 Bft) 95,74 %
30.04.2018 22:30 7,0 C 5,6 C 5,0 C 85 % 15 lf 999,9 hPa 0,0 l/m 0 min 2 min 0 W/m 54,1 km/h (7 Bft) 95,74 %
30.04.2018 22:32 7,0 C 5,6 C 5,0 C 86 % 15 lf 1000,0 hPa 0,0 l/m 0 min 2 min 0 W/m 38,3 km/h (5 Bft) 95,65 %
30.04.2018 22:34 6,9 C 5,6 C 5,0 C 86 % 15 lf 999,9 hPa 0,0 l/m 0 min 2 min 0 W/m 42,8 km/h (6 Bft) 97,87 %
30.04.2018 22:36 6,9 C 5,6 C 5,0 C 86 % 15 lf 1000,1 hPa 0,0 l/m 0 min 2 min 0 W/m 38,3 km/h (5 Bft) 93,62 %
30.04.2018 22:38 6,9 C 5,6 C 5,0 C 86 % 15 lf 1000,2 hPa 0,0 l/m 0 min 2 min 0 W/m 38,3 km/h (5 Bft) 93,62 %
30.04.2018 22:40 6,9 C 5,6 C 5,0 C 86 % 15 lf 1000,0 hPa 0,0 l/m 0 min 2 min 0 W/m 18,0 km/h (3 Bft) 97,87 %
30.04.2018 22:42 6,9 C 5,6 C 5,0 C 86 % 15 lf 1000,1 hPa 0,0 l/m 0 min 2 min 0 W/m 33,8 km/h (5 Bft) 97,87 %
30.04.2018 22:44 6,9 C 5,6 C 5,0 C 87 % 15 lf 1000,1 hPa 0,0 l/m 0 min 2 min 0 W/m 29,3 km/h (5 Bft) 95,65 %
30.04.2018 22:46 6,9 C 5,6 C 5,0 C 87 % 15 lf 1000,2 hPa 0,0 l/m 0 min 2 min 0 W/m 24,8 km/h (4 Bft) 95,74 %
30.04.2018 22:48 6,8 C 5,6 C 5,0 C 87 % 15 lf 1000,2 hPa 0,0 l/m 0 min 2 min 0 W/m 29,3 km/h (5 Bft) 97,87 %
30.04.2018 22:50 6,8 C 5,6 C 5,0 C 87 % 15 lf 1000,2 hPa 0,0 l/m 0 min 2 min 0 W/m 24,8 km/h (4 Bft) 97,87 %
30.04.2018 22:52 6,8 C 5,6 C 5,0 C 88 % 15 lf 1000,3 hPa 0,0 l/m 0 min 2 min 0 W/m 38,3 km/h (5 Bft) 95,74 %
30.04.2018 22:54 6,8 C 5,6 C 5,0 C 88 % 15 lf 1000,3 hPa 0,0 l/m 0 min 2 min 0 W/m 38,3 km/h (5 Bft) 93,62 %
30.04.2018 22:56 6,8 C 5,6 C 5,0 C 88 % 15 lf 1000,3 hPa 0,0 l/m 0 min 2 min 0 W/m 31,5 km/h (5 Bft) 95,65 %
30.04.2018 22:58 6,7 C 5,6 C 5,0 C 88 % 15 lf 1000,4 hPa 0,0 l/m 0 min 2 min 0 W/m 45,1 km/h (6 Bft) 95,74 %
30.04.2018 23:00 6,7 C 5,6 C 5,0 C 88 % 15 lf 1000,4 hPa 0,0 l/m 0 min 2 min 0 W/m 27,0 km/h (4 Bft) 97,87 %
30.04.2018 23:02 6,7 C 5,6 C 5,0 C 89 % 15 lf 1000,4 hPa 0,0 l/m 0 min 2 min 0 W/m 24,8 km/h (4 Bft) 93,62 %
30.04.2018 23:04 6,7 C 5,6 C 5,0 C 89 % 15 lf 1000,4 hPa 0,0 l/m 0 min 2 min 0 W/m 31,5 km/h (5 Bft) 97,87 %
30.04.2018 23:06 6,6 C 5,6 C 5,0 C 89 % 15 lf 1000,5 hPa 0,0 l/m 0 min 2 min 0 W/m 29,3 km/h (5 Bft) 95,65 %
30.04.2018 23:08 6,6 C 5,6 C 5,0 C 89 % 15 lf 1000,5 hPa 0,0 l/m 0 min 2 min 0 W/m 31,5 km/h (5 Bft) 93,62 %
30.04.2018 23:10 6,6 C 5,0 C 5,0 C 90 % 15 lf 1000,6 hPa 0,0 l/m 0 min 2 min 0 W/m 42,8 km/h (6 Bft) 100,00 %
30.04.2018 23:12 6,5 C 5,0 C 5,0 C 90 % 15 lf 1000,6 hPa 0,0 l/m 0 min 2 min 0 W/m 27,0 km/h (4 Bft) 97,87 %
30.04.2018 23:14 6,5 C 5,6 C 5,0 C 90 % 15 lf 1000,6 hPa 0,0 l/m 0 min 0 min 0 W/m 29,3 km/h (5 Bft) 95,74 %
30.04.2018 23:16 6,4 C 5,6 C 5,0 C 90 % 15 lf 1000,6 hPa 0,0 l/m 0 min 0 min 0 W/m 22,5 km/h (4 Bft) 97,87 %
30.04.2018 23:18 6,4 C 5,6 C 5,0 C 90 % 15 lf 1000,6 hPa 0,0 l/m 0 min 0 min 0 W/m 38,3 km/h (5 Bft) 97,83 %
30.04.2018 23:20 6,4 C 5,6 C 5,0 C 90 % 15 lf 1000,5 hPa 0,0 l/m 0 min 0 min 0 W/m 45,1 km/h (6 Bft) 95,74 %
30.04.2018 23:22 6,4 C 5,6 C 5,0 C 91 % 15 lf 1000,6 hPa 0,0 l/m 0 min 0 min 0 W/m 42,8 km/h (6 Bft) 97,87 %
30.04.2018 23:24 6,4 C 5,6 C 5,0 C 91 % 15 lf 1000,5 hPa 0,0 l/m 0 min 0 min 0 W/m 31,5 km/h (5 Bft) 97,87 %
30.04.2018 23:26 6,4 C 5,6 C 5,0 C 91 % 15 lf 1000,7 hPa 0,0 l/m 0 min 0 min 0 W/m 38,3 km/h (5 Bft) 95,74 %
30.04.2018 23:28 6,4 C 5,6 C 5,0 C 91 % 15 lf 1000,6 hPa 0,0 l/m 0 min 0 min 0 W/m 27,0 km/h (4 Bft) 97,87 %
30.04.2018 23:30 6,4 C 5,6 C 5,0 C 91 % 15 lf 1000,7 hPa 0,0 l/m 0 min 2 min 0 W/m 40,6 km/h (6 Bft) 97,83 %
30.04.2018 23:32 6,4 C 5,6 C 5,0 C 91 % 15 lf 1000,7 hPa 0,0 l/m 0 min 2 min 0 W/m 29,3 km/h (5 Bft) 97,92 %
30.04.2018 23:34 6,4 C 5,6 C 5,0 C 91 % 15 lf 1000,6 hPa 0,0 l/m 0 min 2 min 0 W/m 29,3 km/h (5 Bft) 95,65 %
30.04.2018 23:36 6,4 C 5,6 C 5,0 C 91 % 15 lf 1000,7 hPa 0,0 l/m 0 min 2 min 0 W/m 49,6 km/h (6 Bft) 97,87 %
30.04.2018 23:38 6,4 C 5,6 C 5,0 C 91 % 15 lf 1000,7 hPa 0,0 l/m 0 min 2 min 0 W/m 40,6 km/h (6 Bft) 95,74 %
30.04.2018 23:40 6,4 C 5,6 C 5,0 C 91 % 15 lf 1000,7 hPa 0,0 l/m 0 min 2 min 0 W/m 31,5 km/h (5 Bft) 97,87 %
30.04.2018 23:42 6,4 C 5,6 C 5,0 C 91 % 15 lf 1000,7 hPa 0,0 l/m 0 min 2 min 0 W/m 27,0 km/h (4 Bft) 97,87 %
30.04.2018 23:44 6,4 C 5,6 C 5,0 C 91 % 15 lf 1000,7 hPa 0,0 l/m 0 min 2 min 0 W/m 42,8 km/h (6 Bft) 91,30 %
30.04.2018 23:46 6,4 C 5,6 C 5,0 C 91 % 15 lf 1000,8 hPa 0,0 l/m 0 min 2 min 0 W/m 40,6 km/h (6 Bft) 95,74 %
30.04.2018 23:48 6,4 C 5,6 C 5,0 C 91 % 15 lf 1000,7 hPa 0,0 l/m 0 min 2 min 0 W/m 45,1 km/h (6 Bft) 93,62 %
30.04.2018 23:50 6,4 C 5,6 C 5,0 C 91 % 15 lf 1000,7 hPa 0,0 l/m 0 min 2 min 0 W/m 31,5 km/h (5 Bft) 95,74 %
30.04.2018 23:52 6,4 C 5,6 C 5,0 C 91 % 15 lf 1000,8 hPa 0,0 l/m 0 min 2 min 0 W/m 38,3 km/h (5 Bft) 95,74 %
30.04.2018 23:54 6,4 C 5,6 C 4,4 C 91 % 15 lf 1000,9 hPa 0,0 l/m 0 min 2 min 0 W/m 42,8 km/h (6 Bft) 95,74 %
30.04.2018 23:56 6,4 C 5,6 C 4,4 C 91 % 15 lf 1000,8 hPa 0,0 l/m 0 min 2 min 0 W/m 38,3 km/h (5 Bft) 95,65 %
30.04.2018 23:58 6,4 C 5,6 C 4,4 C 91 % 15 lf 1000,8 hPa 0,0 l/m 0 min 2 min 0 W/m 45,1 km/h (6 Bft) 95,74 %
_ Min-Zeit 23:16 23:10 23:54 18:04 10:26 03:20 - - - - 03:48 22:02
Minimum _ 6,4 C 5,0 C 4,4 C 62 % 0 lf 994,6 hPa - - - - 2,3 km/h (1 Bft) 82,98 %
_ Max-Zeit 14:14 13:52 14:12 07:16 00:10 23:54 01:40 12:08 00:08 14:10 20:02 00:14
Maximum _ 15,7 C 22,2 C 17,8 C 98 % 15 lf 1000,9 hPa 1,2 l/m 4 min 4 min 1101 W/m 69,8 km/h
S (8 Bft)
100,00 %
Durchschnitt _ 12,0 C 11,7 C 11,1 C 85 % 9 lf 998,0 hPa #13,2 l/m #3:08 h #8:30 h 220 W/m 27,6 km/h (4 Bft) 96,44 %
© 2018 W. Hausmann